| time (UTC) | temp F | wind direction | speed MPH | gust MPH | rain 1hr in | rain 24hr in | rain mn in | humidity % | barometer mb |
| 20260507074104 | 64 | 69 | 0.0 | 2.0 | 0.00 | 0.03 | 0.00 | 84 | 1005.1 |
| 20260507074003 | 64 | 24 | 0.0 | 2.0 | 0.00 | 0.03 | 0.00 | 84 | 1005.0 |
| 20260507073904 | 64 | 28 | 0.0 | 2.0 | 0.00 | 0.03 | 0.00 | 84 | 1005.0 |
| 20260507073804 | 64 | 128 | 0.0 | 2.0 | 0.00 | 0.03 | 0.00 | 84 | 1005.0 |
| 20260507073702 | 64 | 128 | 0.0 | 2.0 | 0.00 | 0.03 | 0.00 | 84 | 1005.2 |
| 20260507073603 | 64 | 123 | 0.0 | 4.0 | 0.00 | 0.03 | 0.00 | 84 | 1005.2 |
| 20260507073502 | 64 | 123 | 0.0 | 4.0 | 0.00 | 0.03 | 0.00 | 84 | 1005.4 |
| 20260507073403 | 64 | 123 | 0.0 | 4.0 | 0.00 | 0.03 | 0.00 | 84 | 1005.4 |
| 20260507073301 | 64 | 123 | 0.0 | 4.0 | 0.00 | 0.03 | 0.00 | 84 | 1005.3 |
| 20260507073204 | 64 | 338 | 0.0 | 4.0 | 0.00 | 0.03 | 0.00 | 84 | 1005.3 |
| 20260507073104 | 64 | 338 | 0.0 | 4.0 | 0.00 | 0.03 | 0.00 | 84 | 1005.1 |
| 20260507073004 | 64 | 66 | 0.0 | 4.0 | 0.00 | 0.03 | 0.00 | 84 | 1005.1 |
| 20260507072902 | 65 | 66 | 0.0 | 4.0 | 0.00 | 0.03 | 0.00 | 84 | 1005.2 |
| 20260507072804 | 65 | 331 | 1.0 | 4.0 | 0.00 | 0.03 | 0.00 | 84 | 1005.3 |
| 20260507072706 | 65 | 333 | 1.0 | 4.0 | 0.00 | 0.03 | 0.00 | 84 | 1005.5 |
| 20260507072602 | 65 | 94 | 0.0 | 2.0 | 0.00 | 0.03 | 0.00 | 84 | 1005.4 |
| 20260507072502 | 65 | 102 | 0.0 | 2.0 | 0.00 | 0.03 | 0.00 | 84 | 1005.4 |
| 20260507072402 | 65 | 144 | 0.0 | 4.0 | 0.00 | 0.03 | 0.00 | 84 | 1005.4 |
| 20260507072306 | 65 | 144 | 0.0 | 4.0 | 0.00 | 0.03 | 0.00 | 84 | 1005.3 |
| 20260507072203 | 65 | 0 | 0.0 | 4.0 | 0.00 | 0.03 | 0.00 | 84 | 1005.2 |
| 20260507072103 | 65 | 24 | 0.0 | 4.0 | 0.00 | 0.03 | 0.00 | 84 | 1005.2 |
| 20260507072003 | 65 | 24 | 0.0 | 4.0 | 0.00 | 0.03 | 0.00 | 84 | 1005.2 |
| 20260507071902 | 65 | 24 | 0.0 | 4.0 | 0.00 | 0.03 | 0.00 | 84 | 1005.1 |
| 20260507071803 | 65 | 75 | 0.0 | 4.0 | 0.00 | 0.03 | 0.00 | 84 | 1005.1 |
| 20260507071701 | 65 | 80 | 0.0 | 4.0 | 0.00 | 0.03 | 0.00 | 84 | 1005.1 |
| 20260507071603 | 65 | 90 | 1.0 | 4.0 | 0.00 | 0.03 | 0.00 | 84 | 1005.2 |
| 20260507071504 | 65 | 90 | 1.0 | 4.0 | 0.00 | 0.03 | 0.00 | 84 | 1005.2 |
| 20260507071402 | 65 | 99 | 0.0 | 4.0 | 0.00 | 0.03 | 0.00 | 84 | 1005.2 |
| 20260507071303 | 65 | 99 | 1.0 | 4.0 | 0.00 | 0.03 | 0.00 | 84 | 1005.2 |
| 20260507071201 | 65 | 38 | 1.0 | 4.0 | 0.00 | 0.03 | 0.00 | 84 | 1005.2 |
| 20260507071102 | 65 | 102 | 1.0 | 3.0 | 0.00 | 0.03 | 0.00 | 84 | 1005.1 |
| 20260507071005 | 65 | 114 | 0.0 | 3.0 | 0.00 | 0.03 | 0.00 | 84 | 1005.1 |
| 20260507070903 | 65 | 66 | 1.0 | 3.0 | 0.00 | 0.03 | 0.00 | 84 | 1005.0 |
| 20260507070804 | 65 | 324 | 1.0 | 3.0 | 0.00 | 0.03 | 0.00 | 84 | 1005.1 |
| 20260507070702 | 65 | 0 | 1.0 | 3.0 | 0.00 | 0.03 | 0.00 | 84 | 1005.1 |
| 20260507070602 | 65 | 107 | 0.0 | 2.0 | 0.00 | 0.03 | 0.00 | 84 | 1005.1 |
| 20260507070503 | 65 | 76 | 0.0 | 3.0 | 0.00 | 0.03 | 0.00 | 84 | 1005.1 |
| 20260507070402 | 65 | 76 | 0.0 | 3.0 | 0.00 | 0.03 | 0.00 | 83 | 1005.0 |
| 20260507070304 | 65 | 96 | 0.0 | 3.0 | 0.00 | 0.03 | 0.00 | 83 | 1005.1 |
| 20260507070204 | 65 | 102 | 0.0 | 3.0 | 0.00 | 0.03 | 0.00 | 83 | 1005.2 |
| 20260507070003 | 65 | 124 | 0.0 | 3.0 | 0.00 | 0.03 | 0.00 | 83 | 1005.4 |
| 20260507065902 | 65 | 124 | 0.0 | 3.0 | 0.00 | 0.03 | 0.00 | 83 | 1005.4 |
| 20260507065803 | 65 | 68 | 0.0 | 3.0 | 0.00 | 0.03 | 0.00 | 83 | 1005.5 |
| 20260507065701 | 65 | 38 | 1.0 | 3.0 | 0.00 | 0.03 | 0.00 | 83 | 1005.6 |
| 20260507065603 | 65 | 35 | 1.0 | 3.0 | 0.00 | 0.03 | 0.00 | 83 | 1005.7 |
| 20260507065504 | 65 | 63 | 0.0 | 3.0 | 0.00 | 0.03 | 0.00 | 83 | 1005.7 |
| 20260507065402 | 65 | 159 | 0.0 | 3.0 | 0.00 | 0.03 | 0.00 | 83 | 1005.6 |
| 20260507065305 | 65 | 159 | 0.0 | 3.0 | 0.00 | 0.03 | 0.00 | 83 | 1005.7 |
| 20260507065203 | 65 | 159 | 0.0 | 3.0 | 0.00 | 0.03 | 0.00 | 83 | 1005.6 |
| 20260507065104 | 65 | 159 | 0.0 | 3.0 | 0.00 | 0.03 | 0.00 | 83 | 1005.6 |
| 20260507065004 | 65 | 89 | 0.0 | 1.0 | 0.00 | 0.03 | 0.00 | 83 | 1005.5 |
| 20260507064902 | 65 | 86 | 0.0 | 1.0 | 0.00 | 0.03 | 0.00 | 83 | 1005.5 |
| 20260507064803 | 65 | 82 | 0.0 | 1.0 | 0.00 | 0.03 | 0.00 | 83 | 1005.5 |
| 20260507064704 | 65 | 63 | 0.0 | 1.0 | 0.00 | 0.03 | 0.00 | 83 | 1005.6 |
| 20260507064603 | 65 | 145 | 0.0 | 1.0 | 0.00 | 0.03 | 0.00 | 83 | 1005.7 |
| 20260507064504 | 65 | 145 | 0.0 | 1.0 | 0.00 | 0.03 | 0.00 | 83 | 1005.7 |
| 20260507064405 | 65 | 145 | 0.0 | 1.0 | 0.00 | 0.03 | 0.00 | 83 | 1005.9 |
| 20260507064303 | 65 | 134 | 0.0 | 1.0 | 0.00 | 0.03 | 0.00 | 83 | 1005.8 |
| 20260507064205 | 65 | 134 | 0.0 | 1.0 | 0.00 | 0.03 | 0.00 | 83 | 1005.7 |
| 20260507064104 | 65 | 134 | 0.0 | 1.0 | 0.00 | 0.03 | 0.00 | 83 | 1005.4 |
| 20260507064004 | 65 | 138 | 0.0 | 1.0 | 0.00 | 0.03 | 0.00 | 83 | 1005.4 |
| 20260507063904 | 65 | 138 | 0.0 | 1.0 | 0.00 | 0.03 | 0.00 | 83 | 1005.4 |
| 20260507063802 | 65 | 138 | 0.0 | 1.0 | 0.00 | 0.03 | 0.00 | 83 | 1005.4 |
| 20260507063710 | 65 | 138 | 0.0 | 1.0 | 0.00 | 0.03 | 0.00 | 83 | 1005.5 |
| 20260507063603 | 65 | 138 | 0.0 | 1.0 | 0.00 | 0.03 | 0.00 | 83 | 1005.5 |
| 20260507063504 | 65 | 138 | 0.0 | 1.0 | 0.00 | 0.03 | 0.00 | 83 | 1005.5 |
| 20260507063404 | 65 | 137 | 0.0 | 1.0 | 0.00 | 0.03 | 0.00 | 83 | 1005.5 |
| 20260507063302 | 65 | 338 | 0.0 | 1.0 | 0.00 | 0.03 | 0.00 | 83 | 1005.6 |
| 20260507063203 | 65 | 159 | 0.0 | 1.0 | 0.00 | 0.03 | 0.00 | 83 | 1005.5 |
| 20260507063105 | 65 | 113 | 0.0 | 1.0 | 0.00 | 0.03 | 0.00 | 83 | 1005.4 |
| 20260507063004 | 65 | 111 | 0.0 | 1.0 | 0.00 | 0.03 | 0.00 | 83 | 1005.4 |
| 20260507062904 | 65 | 111 | 0.0 | 1.0 | 0.00 | 0.03 | 0.00 | 83 | 1005.6 |
| 20260507062802 | 65 | 111 | 0.0 | 4.0 | 0.00 | 0.03 | 0.00 | 83 | 1005.6 |
| 20260507062703 | 65 | 111 | 0.0 | 4.0 | 0.00 | 0.03 | 0.00 | 83 | 1005.8 |
| 20260507062602 | 65 | 68 | 0.0 | 4.0 | 0.00 | 0.03 | 0.00 | 83 | 1005.7 |
| 20260507062504 | 65 | 68 | 0.0 | 4.0 | 0.00 | 0.03 | 0.00 | 83 | 1005.7 |
| 20260507062404 | 65 | 56 | 0.0 | 4.0 | 0.00 | 0.03 | 0.00 | 83 | 1005.7 |
| 20260507062255 | 65 | 59 | 0.0 | 4.0 | 0.00 | 0.03 | 0.00 | 83 | 1005.8 |
| 20260507062154 | 65 | 59 | 0.0 | 4.0 | 0.00 | 0.03 | 0.00 | 83 | 1005.9 |
| 20260507062051 | 65 | 55 | 0.0 | 4.0 | 0.00 | 0.03 | 0.00 | 83 | 1005.9 |
| 20260507061947 | 65 | 55 | 1.0 | 4.0 | 0.00 | 0.03 | 0.00 | 83 | 1005.6 |
| 20260507061847 | 65 | 32 | 0.0 | 4.0 | 0.00 | 0.03 | 0.00 | 83 | 1005.5 |
| 20260507061748 | 65 | 121 | 0.0 | 1.0 | 0.00 | 0.03 | 0.00 | 83 | 1005.3 |
| 20260507061645 | 65 | 121 | 0.0 | 1.0 | 0.00 | 0.03 | 0.00 | 83 | 1005.3 |
| 20260507061540 | 65 | 121 | 0.0 | 1.0 | 0.00 | 0.03 | 0.00 | 83 | 1005.2 |
| 20260507061440 | 65 | 121 | 0.0 | 1.0 | 0.00 | 0.03 | 0.00 | 83 | 1005.2 |
| 20260507061336 | 65 | 121 | 0.0 | 1.0 | 0.00 | 0.03 | 0.00 | 83 | 1005.3 |
| 20260507061232 | 65 | 121 | 0.0 | 2.0 | 0.00 | 0.03 | 0.00 | 83 | 1005.4 |
| 20260507061133 | 65 | 118 | 0.0 | 2.0 | 0.00 | 0.03 | 0.00 | 83 | 1005.3 |
| 20260507061032 | 65 | 118 | 0.0 | 2.0 | 0.00 | 0.03 | 0.00 | 83 | 1005.3 |
| 20260507060931 | 65 | 118 | 0.0 | 2.0 | 0.00 | 0.03 | 0.00 | 83 | 1005.3 |
| 20260507060831 | 65 | 118 | 0.0 | 2.0 | 0.00 | 0.03 | 0.00 | 83 | 1005.4 |
| 20260507060731 | 65 | 158 | 0.0 | 2.0 | 0.00 | 0.03 | 0.00 | 83 | 1005.5 |
| 20260507060631 | 65 | 62 | 0.0 | 2.0 | 0.00 | 0.03 | 0.00 | 83 | 1005.4 |
| 20260507060531 | 65 | 62 | 0.0 | 2.0 | 0.00 | 0.03 | 0.00 | 83 | 1005.4 |
| 20260507060432 | 65 | 73 | 0.0 | 3.0 | 0.00 | 0.03 | 0.00 | 83 | 1005.4 |
| 20260507060332 | 65 | 127 | 0.0 | 3.0 | 0.00 | 0.03 | 0.00 | 83 | 1005.4 |
| 20260507060232 | 65 | 134 | 1.0 | 3.0 | 0.00 | 0.03 | 0.00 | 83 | 1005.5 |
| 20260507060132 | 65 | 92 | 0.0 | 4.0 | 0.00 | 0.03 | 0.00 | 83 | 1005.6 |
| 20260507060017 | 65 | 133 | 0.0 | 4.0 | 0.00 | 0.03 | 0.00 | 83 | 1005.6 |
| 20260507055915 | 65 | 128 | 0.0 | 4.0 | 0.00 | 0.03 | 0.00 | 83 | 1005.6 |
| 20260507055813 | 65 | 128 | 0.0 | 4.0 | 0.00 | 0.03 | 0.00 | 83 | 1005.4 |
| 20260507055716 | 65 | 128 | 0.0 | 4.0 | 0.00 | 0.03 | 0.00 | 83 | 1005.4 |
| 20260507055615 | 65 | 128 | 0.0 | 4.0 | 0.00 | 0.03 | 0.00 | 83 | 1005.3 |
| 20260507055514 | 65 | 93 | 0.0 | 4.0 | 0.00 | 0.03 | 0.00 | 83 | 1005.3 |
| 20260507055415 | 65 | 162 | 0.0 | 4.0 | 0.00 | 0.03 | 0.00 | 83 | 1005.1 |
| 20260507055315 | 65 | 162 | 1.0 | 4.0 | 0.00 | 0.03 | 0.00 | 83 | 1005.1 |
| 20260507055217 | 65 | 62 | 0.0 | 4.0 | 0.00 | 0.03 | 0.00 | 83 | 1005.0 |
| 20260507055114 | 65 | 113 | 0.0 | 2.0 | 0.00 | 0.03 | 0.00 | 83 | 1004.9 |
| 20260507055013 | 65 | 110 | 0.0 | 2.0 | 0.00 | 0.03 | 0.00 | 83 | 1004.9 |
| 20260507054913 | 65 | 107 | 0.0 | 2.0 | 0.00 | 0.03 | 0.00 | 83 | 1005.0 |
| 20260507054814 | 65 | 59 | 0.0 | 2.0 | 0.00 | 0.03 | 0.00 | 83 | 1005.0 |
| 20260507054713 | 65 | 58 | 0.0 | 5.0 | 0.00 | 0.03 | 0.00 | 83 | 1005.0 |
| 20260507054613 | 65 | 96 | 0.0 | 5.0 | 0.00 | 0.03 | 0.00 | 83 | 1005.0 |
| 20260507054513 | 65 | 94 | 0.0 | 5.0 | 0.00 | 0.03 | 0.00 | 83 | 1005.1 |
| 20260507054413 | 65 | 55 | 0.0 | 5.0 | 0.00 | 0.03 | 0.00 | 83 | 1005.1 |
| 20260507054313 | 65 | 58 | 0.0 | 5.0 | 0.00 | 0.03 | 0.00 | 83 | 1005.1 |
| 20260507054213 | 65 | 121 | 0.0 | 5.0 | 0.00 | 0.03 | 0.00 | 83 | 1005.1 |
| 20260507054114 | 65 | 131 | 0.0 | 5.0 | 0.00 | 0.03 | 0.00 | 83 | 1005.0 |
| 20260507054013 | 65 | 131 | 0.0 | 5.0 | 0.00 | 0.03 | 0.00 | 83 | 1005.0 |
| 20260507053914 | 65 | 131 | 1.0 | 5.0 | 0.00 | 0.03 | 0.00 | 83 | 1005.1 |
| 20260507053813 | 65 | 131 | 1.0 | 5.0 | 0.00 | 0.03 | 0.00 | 83 | 1005.2 |
| 20260507053714 | 65 | 223 | 0.0 | 2.0 | 0.00 | 0.03 | 0.00 | 83 | 1005.2 |
| 20260507053613 | 65 | 289 | 0.0 | 2.0 | 0.00 | 0.03 | 0.00 | 83 | 1005.3 |
| 20260507053514 | 65 | 310 | 0.0 | 2.0 | 0.00 | 0.03 | 0.00 | 83 | 1005.4 |
| 20260507053413 | 65 | 312 | 0.0 | 2.0 | 0.00 | 0.03 | 0.00 | 83 | 1005.4 |
| 20260507053314 | 65 | 180 | 0.0 | 2.0 | 0.00 | 0.03 | 0.00 | 83 | 1005.4 |
| 20260507053213 | 65 | 180 | 0.0 | 2.0 | 0.00 | 0.03 | 0.00 | 83 | 1005.4 |
| 20260507053113 | 65 | 185 | 1.0 | 2.0 | 0.00 | 0.03 | 0.00 | 83 | 1005.4 |
| 20260507053014 | 65 | 69 | 0.0 | 2.0 | 0.00 | 0.03 | 0.00 | 83 | 1005.4 |
| 20260507052913 | 65 | 68 | 0.0 | 2.0 | 0.00 | 0.03 | 0.00 | 83 | 1005.3 |
| 20260507052814 | 65 | 83 | 0.0 | 3.0 | 0.00 | 0.03 | 0.00 | 83 | 1005.4 |
| 20260507052714 | 65 | 30 | 0.0 | 3.0 | 0.00 | 0.03 | 0.00 | 82 | 1005.3 |
| 20260507052614 | 65 | 32 | 1.0 | 3.0 | 0.00 | 0.03 | 0.00 | 82 | 1005.3 |
| 20260507052513 | 65 | 32 | 0.0 | 3.0 | 0.00 | 0.03 | 0.00 | 82 | 1005.4 |
| 20260507052414 | 66 | 92 | 0.0 | 3.0 | 0.00 | 0.03 | 0.00 | 83 | 1005.3 |
| 20260507052314 | 66 | 124 | 0.0 | 3.0 | 0.00 | 0.03 | 0.00 | 83 | 1005.4 |
| 20260507052213 | 66 | 99 | 0.0 | 3.0 | 0.00 | 0.03 | 0.00 | 83 | 1005.4 |
| 20260507052112 | 66 | 30 | 0.0 | 3.0 | 0.00 | 0.03 | 0.00 | 82 | 1005.4 |
| 20260507052014 | 65 | 86 | 1.0 | 3.0 | 0.00 | 0.03 | 0.00 | 82 | 1005.4 |
| 20260507051913 | 66 | 65 | 0.0 | 3.0 | 0.00 | 0.03 | 0.00 | 82 | 1005.4 |
| 20260507051812 | 66 | 96 | 0.0 | 2.0 | 0.00 | 0.03 | 0.00 | 82 | 1005.4 |
| 20260507051712 | 66 | 80 | 0.0 | 2.0 | 0.00 | 0.03 | 0.00 | 82 | 1005.4 |
| 20260507051612 | 66 | 113 | 0.0 | 2.0 | 0.00 | 0.03 | 0.00 | 82 | 1005.4 |
| 20260507051513 | 66 | 113 | 0.0 | 2.0 | 0.00 | 0.03 | 0.00 | 82 | 1005.3 |
| 20260507051414 | 66 | 113 | 0.0 | 2.0 | 0.00 | 0.03 | 0.00 | 82 | 1005.2 |
| 20260507051314 | 66 | 118 | 0.0 | 2.0 | 0.00 | 0.03 | 0.00 | 82 | 1005.1 |
| 20260507051213 | 66 | 118 | 0.0 | 2.0 | 0.00 | 0.03 | 0.00 | 82 | 1005.0 |
| 20260507051113 | 66 | 120 | 0.0 | 2.0 | 0.00 | 0.03 | 0.00 | 82 | 1005.1 |
| 20260507051014 | 66 | 120 | 0.0 | 2.0 | 0.00 | 0.03 | 0.00 | 82 | 1005.1 |
| 20260507050914 | 66 | 104 | 0.0 | 2.0 | 0.00 | 0.03 | 0.00 | 82 | 1005.1 |
| 20260507050812 | 66 | 175 | 0.0 | 3.0 | 0.00 | 0.03 | 0.00 | 82 | 1005.0 |
| 20260507050713 | 66 | 185 | 0.0 | 3.0 | 0.00 | 0.03 | 0.00 | 82 | 1005.0 |
| 20260507050613 | 66 | 185 | 0.0 | 3.0 | 0.00 | 0.03 | 0.00 | 83 | 1005.1 |
| 20260507050512 | 66 | 258 | 0.0 | 3.0 | 0.00 | 0.03 | 0.00 | 83 | 1005.0 |
| 20260507050413 | 66 | 131 | 0.0 | 3.0 | 0.00 | 0.03 | 0.00 | 82 | 1004.9 |
| 20260507050313 | 66 | 93 | 0.0 | 3.0 | 0.00 | 0.03 | 0.00 | 82 | 1005.1 |
| 20260507050213 | 66 | 65 | 0.0 | 3.0 | 0.00 | 0.03 | 0.00 | 82 | 1005.1 |
| 20260507050113 | 66 | 78 | 0.0 | 5.0 | 0.00 | 0.03 | 0.00 | 82 | 1005.0 |
| 20260507050013 | 66 | 55 | 0.0 | 5.0 | 0.00 | 0.03 | 0.00 | 82 | 1005.0 |
| 20260507045914 | 66 | 114 | 1.0 | 5.0 | 0.00 | 0.03 | 0.03 | 82 | 1005.1 |
| 20260507045813 | 66 | 113 | 0.0 | 5.0 | 0.00 | 0.03 | 0.03 | 82 | 1005.0 |
| 20260507045713 | 66 | 116 | 0.0 | 5.0 | 0.00 | 0.03 | 0.03 | 82 | 1005.0 |
| 20260507045612 | 66 | 48 | 0.0 | 5.0 | 0.00 | 0.03 | 0.03 | 82 | 1005.0 |
| 20260507045514 | 66 | 55 | 0.0 | 5.0 | 0.00 | 0.03 | 0.03 | 82 | 1005.0 |
| 20260507045413 | 66 | 55 | 0.0 | 5.0 | 0.00 | 0.03 | 0.03 | 82 | 1004.9 |
| 20260507045313 | 66 | 161 | 1.0 | 5.0 | 0.00 | 0.03 | 0.03 | 82 | 1004.9 |
| 20260507045213 | 66 | 127 | 1.0 | 5.0 | 0.00 | 0.03 | 0.03 | 82 | 1005.0 |
| 20260507045111 | 66 | 86 | 0.0 | 3.0 | 0.00 | 0.03 | 0.03 | 82 | 1005.0 |
| 20260507045013 | 66 | 228 | 0.0 | 3.0 | 0.00 | 0.03 | 0.03 | 82 | 1005.0 |
| 20260507044911 | 66 | 227 | 0.0 | 3.0 | 0.00 | 0.03 | 0.03 | 82 | 1004.9 |
| 20260507044812 | 66 | 63 | 0.0 | 3.0 | 0.00 | 0.03 | 0.03 | 82 | 1005.0 |
| 20260507044711 | 66 | 0 | 0.0 | 3.0 | 0.00 | 0.03 | 0.03 | 82 | 1004.9 |
| 20260507044612 | 66 | 0 | 0.0 | 3.0 | 0.00 | 0.03 | 0.03 | 82 | 1004.9 |
| 20260507044513 | 66 | 138 | 0.0 | 4.0 | 0.00 | 0.03 | 0.03 | 82 | 1004.9 |
| 20260507044413 | 66 | 107 | 0.0 | 6.0 | 0.00 | 0.03 | 0.03 | 82 | 1004.9 |
| 20260507044314 | 66 | 89 | 0.0 | 6.0 | 0.00 | 0.03 | 0.03 | 82 | 1004.9 |
| 20260507044213 | 66 | 90 | 0.0 | 6.0 | 0.00 | 0.03 | 0.03 | 82 | 1005.0 |
| 20260507044114 | 66 | 90 | 0.0 | 6.0 | 0.00 | 0.03 | 0.03 | 82 | 1004.9 |
| 20260507044013 | 66 | 89 | 0.0 | 6.0 | 0.00 | 0.03 | 0.03 | 82 | 1004.9 |
| 20260507043913 | 66 | 90 | 1.0 | 6.0 | 0.00 | 0.03 | 0.03 | 82 | 1005.1 |
| 20260507043813 | 66 | 135 | 0.0 | 6.0 | 0.00 | 0.03 | 0.03 | 82 | 1005.0 |
| 20260507043712 | 67 | 87 | 1.0 | 6.0 | 0.00 | 0.03 | 0.03 | 82 | 1005.0 |
| 20260507043612 | 67 | 87 | 2.0 | 6.0 | 0.00 | 0.03 | 0.03 | 82 | 1005.0 |
| 20260507043513 | 67 | 96 | 1.0 | 3.0 | 0.00 | 0.03 | 0.03 | 82 | 1005.0 |
| 20260507043413 | 67 | 226 | 0.0 | 1.0 | 0.00 | 0.03 | 0.03 | 82 | 1005.0 |
| 20260507043313 | 67 | 288 | 0.0 | 1.0 | 0.00 | 0.03 | 0.03 | 82 | 1005.0 |
| 20260507043212 | 67 | 288 | 0.0 | 1.0 | 0.00 | 0.03 | 0.03 | 82 | 1005.0 |
| 20260507043112 | 67 | 288 | 0.0 | 1.0 | 0.00 | 0.03 | 0.03 | 82 | 1005.0 |
| 20260507043013 | 67 | 288 | 0.0 | 1.0 | 0.00 | 0.03 | 0.03 | 82 | 1005.0 |
| 20260507042913 | 67 | 288 | 0.0 | 1.0 | 0.00 | 0.03 | 0.03 | 82 | 1005.0 |
| 20260507042811 | 67 | 288 | 0.0 | 1.0 | 0.00 | 0.03 | 0.03 | 82 | 1005.0 |
| 20260507042711 | 67 | 272 | 0.0 | 1.0 | 0.00 | 0.03 | 0.03 | 82 | 1005.0 |
| 20260507042612 | 67 | 92 | 0.0 | 1.0 | 0.00 | 0.03 | 0.03 | 82 | 1004.9 |
| 20260507042512 | 67 | 89 | 0.0 | 1.0 | 0.00 | 0.03 | 0.03 | 82 | 1004.9 |
| 20260507042413 | 67 | 89 | 0.0 | 1.0 | 0.00 | 0.03 | 0.03 | 82 | 1004.9 |
| 20260507042312 | 67 | 89 | 0.0 | 3.0 | 0.00 | 0.03 | 0.03 | 82 | 1005.0 |
| 20260507042211 | 67 | 89 | 0.0 | 3.0 | 0.00 | 0.03 | 0.03 | 82 | 1005.0 |
| 20260507042113 | 67 | 89 | 0.0 | 3.0 | 0.00 | 0.03 | 0.03 | 82 | 1004.9 |
| 20260507042012 | 67 | 118 | 0.0 | 4.0 | 0.00 | 0.03 | 0.03 | 82 | 1005.0 |
| 20260507041913 | 67 | 118 | 0.0 | 4.0 | 0.00 | 0.03 | 0.03 | 82 | 1004.9 |
| 20260507041813 | 67 | 158 | 1.0 | 4.0 | 0.00 | 0.03 | 0.03 | 82 | 1004.9 |
| 20260507041713 | 67 | 62 | 0.0 | 4.0 | 0.00 | 0.03 | 0.03 | 82 | 1004.9 |
| 20260507041611 | 67 | 97 | 0.0 | 4.0 | 0.00 | 0.03 | 0.03 | 82 | 1004.9 |
| 20260507041512 | 67 | 48 | 0.0 | 4.0 | 0.00 | 0.03 | 0.03 | 82 | 1004.9 |
| 20260507041412 | 67 | 48 | 0.0 | 4.0 | 0.00 | 0.03 | 0.03 | 82 | 1004.9 |
| 20260507041312 | 67 | 59 | 0.0 | 4.0 | 0.00 | 0.03 | 0.03 | 82 | 1004.9 |
| 20260507041213 | 67 | 66 | 1.0 | 4.0 | 0.00 | 0.03 | 0.03 | 82 | 1004.9 |
| 20260507041113 | 67 | 27 | 0.0 | 4.0 | 0.00 | 0.03 | 0.03 | 82 | 1004.9 |
| 20260507041011 | 67 | 109 | 0.0 | 3.0 | 0.00 | 0.03 | 0.03 | 82 | 1005.0 |
| 20260507040911 | 67 | 106 | 0.0 | 3.0 | 0.00 | 0.03 | 0.03 | 82 | 1005.1 |
| 20260507040810 | 67 | 252 | 0.0 | 2.0 | 0.00 | 0.03 | 0.03 | 82 | 1004.9 |
| 20260507040710 | 67 | 138 | 0.0 | 2.0 | 0.00 | 0.03 | 0.03 | 82 | 1004.9 |
| 20260507040606 | 67 | 134 | 0.0 | 2.0 | 0.00 | 0.03 | 0.03 | 82 | 1004.9 |
| 20260507040503 | 67 | 355 | 0.0 | 2.0 | 0.00 | 0.03 | 0.03 | 82 | 1004.8 |
| 20260507040402 | 67 | 357 | 0.0 | 2.0 | 0.00 | 0.03 | 0.03 | 82 | 1004.9 |
| 20260507040302 | 67 | 79 | 0.0 | 2.0 | 0.00 | 0.03 | 0.03 | 82 | 1004.9 |
| 20260507040203 | 67 | 79 | 1.0 | 2.0 | 0.00 | 0.03 | 0.03 | 82 | 1005.0 |
| 20260507040003 | 67 | 110 | 0.0 | 2.0 | 0.00 | 0.03 | 0.03 | 82 | 1004.9 |
| 20260507035904 | 67 | 110 | 0.0 | 2.0 | 0.00 | 0.03 | 0.03 | 82 | 1005.0 |
| 20260507035801 | 67 | 110 | 0.0 | 2.0 | 0.00 | 0.03 | 0.03 | 82 | 1005.0 |
| 20260507035702 | 67 | 110 | 0.0 | 2.0 | 0.00 | 0.03 | 0.03 | 82 | 1004.9 |
| 20260507035604 | 67 | 52 | 0.0 | 2.0 | 0.00 | 0.03 | 0.03 | 82 | 1005.0 |
| 20260507035502 | 67 | 51 | 0.0 | 2.0 | 0.00 | 0.03 | 0.03 | 82 | 1005.0 |
| 20260507035404 | 67 | 49 | 1.0 | 2.0 | 0.00 | 0.03 | 0.03 | 82 | 1004.9 |
| 20260507035306 | 67 | 52 | 0.0 | 2.0 | 0.00 | 0.03 | 0.03 | 82 | 1004.9 |
| 20260507035202 | 67 | 42 | 0.0 | 1.0 | 0.00 | 0.03 | 0.03 | 82 | 1004.9 |
| 20260507035102 | 67 | 300 | 0.0 | 1.0 | 0.00 | 0.03 | 0.03 | 82 | 1004.9 |
| 20260507035003 | 67 | 207 | 0.0 | 2.0 | 0.00 | 0.03 | 0.03 | 82 | 1004.9 |
| 20260507034903 | 67 | 207 | 0.0 | 2.0 | 0.00 | 0.03 | 0.03 | 82 | 1005.0 |
| 20260507034802 | 67 | 207 | 0.0 | 2.0 | 0.00 | 0.03 | 0.03 | 82 | 1005.0 |
| 20260507034702 | 67 | 207 | 0.0 | 2.0 | 0.00 | 0.03 | 0.03 | 82 | 1005.0 |
| 20260507034602 | 67 | 207 | 0.0 | 2.0 | 0.00 | 0.03 | 0.03 | 82 | 1005.1 |
| 20260507034502 | 67 | 207 | 0.0 | 2.0 | 0.00 | 0.03 | 0.03 | 82 | 1005.2 |
| 20260507034402 | 67 | 207 | 0.0 | 2.0 | 0.00 | 0.03 | 0.03 | 82 | 1005.2 |
| 20260507034303 | 67 | 207 | 0.0 | 2.0 | 0.00 | 0.03 | 0.03 | 82 | 1005.2 |
| 20260507034202 | 67 | 217 | 0.0 | 2.0 | 0.00 | 0.03 | 0.03 | 82 | 1005.2 |
| 20260507034103 | 67 | 217 | 0.0 | 2.0 | 0.00 | 0.03 | 0.03 | 82 | 1004.9 |
| 20260507034003 | 68 | 124 | 0.0 | 2.0 | 0.00 | 0.03 | 0.03 | 82 | 1004.9 |
| 20260507033904 | 68 | 0 | 0.0 | 2.0 | 0.00 | 0.03 | 0.03 | 82 | 1004.9 |
| 20260507033804 | 68 | 100 | 0.0 | 1.0 | 0.00 | 0.03 | 0.03 | 82 | 1005.1 |
| 20260507033703 | 68 | 120 | 0.0 | 1.0 | 0.00 | 0.03 | 0.03 | 82 | 1005.1 |
| 20260507033604 | 68 | 97 | 0.0 | 1.0 | 0.00 | 0.03 | 0.03 | 82 | 1005.1 |
| 20260507033501 | 68 | 97 | 0.0 | 1.0 | 0.00 | 0.03 | 0.03 | 82 | 1005.1 |
| 20260507033403 | 68 | 97 | 0.0 | 1.0 | 0.00 | 0.03 | 0.03 | 82 | 1005.1 |
| 20260507033303 | 0 | 0.0 | 0.0 | 0.00 | 0.03 | 0.03 | 1005.2 | ||
| 20260507033132 | 0 | 0.0 | 0.0 | 0.00 | 0.03 | 0.03 | 1005.1 | ||
| 20260507033033 | 0 | 0.0 | 0.0 | 0.00 | 0.03 | 0.03 | 1005.1 | ||
| 20260507032933 | 0 | 0.0 | 0.0 | 0.00 | 0.03 | 0.03 | 1005.1 | ||
| 20260507032833 | 0 | 0.0 | 0.0 | 0.00 | 0.03 | 0.03 | 1005.1 | ||
| 20260507032733 | 0 | 0.0 | 0.0 | 0.00 | 0.03 | 0.03 | 1005.1 | ||
| 20260507032633 | 0 | 0.0 | 0.0 | 0.00 | 0.03 | 0.03 | 1005.0 | ||
| 20260507032507 | 0 | 0.0 | 0.0 | 0.00 | 0.03 | 0.03 | 1004.9 | ||
| 20260507032407 | 0 | 0.0 | 0.0 | 0.00 | 0.03 | 0.03 | 1004.9 | ||
| 20260507032306 | 0 | 0.0 | 0.0 | 0.00 | 0.03 | 0.03 | 1004.8 | ||
| 20260507032204 | 0 | 0.0 | 0.0 | 0.00 | 0.03 | 0.03 | 1004.8 | ||
| 20260507032105 | 0 | 0.0 | 0.0 | 0.00 | 0.03 | 0.03 | 1004.7 | ||
| 20260507032005 | 0 | 0.0 | 0.0 | 0.00 | 0.03 | 0.03 | 1004.7 | ||
| 20260507031904 | 0 | 0.0 | 0.0 | 0.00 | 0.03 | 0.03 | 1004.6 | ||
| 20260507031803 | 0 | 0.0 | 0.0 | 0.00 | 0.03 | 0.03 | 1004.6 | ||
| 20260507031704 | 0 | 0.0 | 0.0 | 0.00 | 0.03 | 0.03 | 1004.5 | ||
| 20260507031604 | 0 | 0.0 | 0.0 | 0.00 | 0.03 | 0.03 | 1004.5 | ||
| 20260507031503 | 0 | 0.0 | 0.0 | 0.00 | 0.03 | 0.03 | 1004.5 | ||
| 20260507031404 | 0 | 0.0 | 0.0 | 0.00 | 0.03 | 0.03 | 1004.5 | ||
| 20260507031303 | 0 | 0.0 | 0.0 | 0.00 | 0.03 | 0.03 | 1004.4 | ||
| 20260507031203 | 0 | 0.0 | 0.0 | 0.00 | 0.03 | 0.03 | 1004.4 | ||
| 20260507031103 | 0 | 0.0 | 0.0 | 0.00 | 0.03 | 0.03 | 1004.4 | ||
| 20260507031003 | 0 | 0.0 | 0.0 | 0.00 | 0.03 | 0.03 | 1004.4 | ||
| 20260507030902 | 0 | 0.0 | 0.0 | 0.00 | 0.03 | 0.03 | 1004.4 | ||
| 20260507030803 | 0 | 0.0 | 0.0 | 0.00 | 0.03 | 0.03 | 1004.4 | ||
| 20260507030704 | 68 | 152 | 0.0 | 2.0 | 0.00 | 0.03 | 0.03 | 82 | 1004.4 |
| 20260507030602 | 68 | 152 | 0.0 | 2.0 | 0.00 | 0.03 | 0.03 | 82 | 1004.5 |
| 20260507030503 | 68 | 152 | 0.0 | 2.0 | 0.00 | 0.03 | 0.03 | 82 | 1004.4 |
| 20260507030403 | 68 | 152 | 0.0 | 2.0 | 0.00 | 0.03 | 0.03 | 82 | 1004.4 |
| 20260507030304 | 68 | 152 | 0.0 | 2.0 | 0.00 | 0.03 | 0.03 | 82 | 1004.2 |
| 20260507030202 | 68 | 152 | 0.0 | 2.0 | 0.00 | 0.03 | 0.03 | 82 | 1004.2 |
| 20260507030003 | 68 | 152 | 0.0 | 2.0 | 0.00 | 0.03 | 0.03 | 82 | 1004.1 |
| 20260507025901 | 68 | 152 | 0.0 | 2.0 | 0.00 | 0.03 | 0.03 | 82 | 1004.1 |
| 20260507025803 | 68 | 152 | 0.0 | 2.0 | 0.00 | 0.03 | 0.03 | 82 | 1004.0 |
| 20260507025702 | 68 | 137 | 0.0 | 1.0 | 0.00 | 0.03 | 0.03 | 82 | 1004.0 |
| 20260507025603 | 68 | 125 | 0.0 | 1.0 | 0.00 | 0.03 | 0.03 | 82 | 1004.0 |
| 20260507025502 | 69 | 125 | 0.0 | 1.0 | 0.00 | 0.03 | 0.03 | 82 | 1004.0 |
| 20260507025402 | 69 | 116 | 0.0 | 1.0 | 0.00 | 0.03 | 0.03 | 82 | 1004.0 |
| 20260507025306 | 69 | 102 | 0.0 | 1.0 | 0.00 | 0.03 | 0.03 | 82 | 1004.0 |
| 20260507025203 | 69 | 102 | 0.0 | 1.0 | 0.00 | 0.03 | 0.03 | 82 | 1003.9 |
| 20260507025102 | 69 | 102 | 0.0 | 1.0 | 0.00 | 0.03 | 0.03 | 82 | 1003.9 |
| 20260507025002 | 69 | 207 | 0.0 | 1.0 | 0.00 | 0.03 | 0.03 | 82 | 1003.8 |
| 20260507024901 | 69 | 206 | 0.0 | 1.0 | 0.00 | 0.03 | 0.03 | 82 | 1003.8 |
| 20260507024803 | 69 | 213 | 0.0 | 1.0 | 0.00 | 0.03 | 0.03 | 82 | 1003.8 |
| 20260507024702 | 69 | 193 | 0.0 | 1.0 | 0.00 | 0.03 | 0.03 | 82 | 1003.8 |
| 20260507024603 | 69 | 193 | 0.0 | 1.0 | 0.00 | 0.03 | 0.03 | 82 | 1003.7 |
| 20260507024503 | 69 | 96 | 0.0 | 1.0 | 0.00 | 0.03 | 0.03 | 82 | 1003.8 |
| 20260507024402 | 69 | 96 | 0.0 | 1.0 | 0.00 | 0.03 | 0.03 | 82 | 1003.7 |
| 20260507024302 | 69 | 96 | 0.0 | 1.0 | 0.00 | 0.03 | 0.03 | 82 | 1003.7 |
| 20260507024202 | 69 | 96 | 0.0 | 1.0 | 0.00 | 0.03 | 0.03 | 82 | 1003.6 |
| 20260507024103 | 69 | 73 | 0.0 | 2.0 | 0.00 | 0.03 | 0.03 | 82 | 1003.5 |
| 20260507024002 | 69 | 69 | 0.0 | 6.0 | 0.00 | 0.03 | 0.03 | 82 | 1003.5 |
| 20260507023903 | 69 | 118 | 0.0 | 6.0 | 0.00 | 0.03 | 0.03 | 82 | 1003.5 |
| 20260507023804 | 69 | 93 | 0.0 | 6.0 | 0.00 | 0.03 | 0.03 | 82 | 1003.5 |
| 20260507023702 | 69 | 175 | 0.0 | 6.0 | 0.00 | 0.03 | 0.03 | 82 | 1003.5 |
| 20260507023602 | 69 | 162 | 0.0 | 6.0 | 0.00 | 0.03 | 0.03 | 82 | 1003.5 |
| 20260507023504 | 69 | 111 | 0.0 | 6.0 | 0.00 | 0.03 | 0.03 | 82 | 1003.5 |
| 20260507023402 | 69 | 111 | 0.0 | 6.0 | 0.00 | 0.03 | 0.03 | 82 | 1003.5 |
| 20260507023304 | 69 | 111 | 0.0 | 6.0 | 0.00 | 0.03 | 0.03 | 82 | 1003.4 |
| 20260507023202 | 69 | 111 | 1.0 | 6.0 | 0.00 | 0.03 | 0.03 | 82 | 1003.4 |
| 20260507023102 | 69 | 351 | 1.0 | 6.0 | 0.00 | 0.03 | 0.03 | 82 | 1003.4 |
| 20260507023005 | 69 | 90 | 1.0 | 4.0 | 0.00 | 0.03 | 0.03 | 82 | 1003.3 |
| 20260507022902 | 69 | 30 | 2.0 | 4.0 | 0.00 | 0.03 | 0.03 | 82 | 1003.4 |
| 20260507022803 | 69 | 320 | 1.0 | 4.0 | 0.00 | 0.03 | 0.03 | 82 | 1003.4 |
| 20260507022702 | 69 | 96 | 0.0 | 3.0 | 0.00 | 0.03 | 0.03 | 82 | 1003.3 |
| 20260507022604 | 69 | 130 | 0.0 | 3.0 | 0.00 | 0.03 | 0.03 | 82 | 1003.3 |
| 20260507022503 | 69 | 206 | 0.0 | 2.0 | 0.00 | 0.03 | 0.03 | 82 | 1003.3 |
| 20260507022403 | 69 | 214 | 0.0 | 2.0 | 0.00 | 0.03 | 0.03 | 82 | 1003.2 |
| 20260507022306 | 69 | 214 | 0.0 | 2.0 | 0.00 | 0.03 | 0.03 | 82 | 1003.2 |
| 20260507022202 | 69 | 171 | 0.0 | 2.0 | 0.00 | 0.03 | 0.03 | 82 | 1003.2 |
| 20260507022103 | 69 | 162 | 0.0 | 2.0 | 0.00 | 0.03 | 0.03 | 82 | 1003.2 |
| 20260507022002 | 69 | 44 | 0.0 | 2.0 | 0.00 | 0.03 | 0.03 | 82 | 1003.3 |
| 20260507021903 | 69 | 32 | 0.0 | 2.0 | 0.00 | 0.03 | 0.03 | 82 | 1003.3 |
| 20260507021802 | 69 | 54 | 0.0 | 2.0 | 0.00 | 0.03 | 0.03 | 82 | 1003.2 |
| 20260507021702 | 69 | 135 | 0.0 | 2.0 | 0.00 | 0.03 | 0.03 | 82 | 1003.2 |
| 20260507021603 | 69 | 114 | 0.0 | 1.0 | 0.00 | 0.03 | 0.03 | 82 | 1003.1 |
| 20260507021505 | 69 | 114 | 0.0 | 1.0 | 0.00 | 0.03 | 0.03 | 82 | 1003.1 |
| 20260507021402 | 69 | 117 | 0.0 | 1.0 | 0.00 | 0.03 | 0.03 | 82 | 1003.0 |
| 20260507021302 | 69 | 103 | 0.0 | 1.0 | 0.00 | 0.03 | 0.03 | 82 | 1003.0 |
| 20260507021204 | 70 | 48 | 0.0 | 2.0 | 0.00 | 0.03 | 0.03 | 82 | 1003.0 |
| 20260507021102 | 70 | 69 | 0.0 | 2.0 | 0.00 | 0.03 | 0.03 | 82 | 1003.0 |
| 20260507021003 | 70 | 178 | 0.0 | 2.0 | 0.00 | 0.03 | 0.03 | 82 | 1003.0 |
| 20260507020903 | 70 | 171 | 0.0 | 3.0 | 0.00 | 0.03 | 0.03 | 82 | 1003.0 |
| 20260507020804 | 70 | 171 | 0.0 | 3.0 | 0.00 | 0.03 | 0.03 | 82 | 1002.9 |
| 20260507020704 | 70 | 189 | 0.0 | 3.0 | 0.00 | 0.03 | 0.03 | 82 | 1002.9 |
| 20260507020602 | 70 | 189 | 0.0 | 3.0 | 0.00 | 0.03 | 0.03 | 82 | 1003.0 |
| 20260507020505 | 70 | 189 | 0.0 | 3.0 | 0.00 | 0.03 | 0.03 | 82 | 1002.9 |
| 20260507020402 | 70 | 189 | 0.0 | 3.0 | 0.00 | 0.03 | 0.03 | 82 | 1003.0 |
| 20260507020304 | 70 | 189 | 0.0 | 3.0 | 0.00 | 0.03 | 0.03 | 82 | 1002.9 |
| 20260507020203 | 70 | 0 | 0.0 | 3.0 | 0.00 | 0.03 | 0.03 | 82 | 1002.9 |
| 20260507020003 | 70 | 128 | 1.0 | 3.0 | 0.00 | 0.03 | 0.03 | 82 | 1002.8 |
| 20260507015902 | 70 | 133 | 0.0 | 2.0 | 0.00 | 0.03 | 0.03 | 82 | 1002.9 |
| 20260507015802 | 70 | 133 | 0.0 | 2.0 | 0.00 | 0.03 | 0.03 | 82 | 1002.9 |
| 20260507015704 | 70 | 133 | 0.0 | 2.0 | 0.00 | 0.03 | 0.03 | 82 | 1002.8 |
| 20260507015602 | 70 | 133 | 0.0 | 2.0 | 0.00 | 0.03 | 0.03 | 82 | 1002.8 |
| 20260507015503 | 70 | 133 | 0.0 | 2.0 | 0.00 | 0.03 | 0.03 | 82 | 1002.7 |
| 20260507015402 | 70 | 133 | 0.0 | 2.0 | 0.00 | 0.03 | 0.03 | 82 | 1002.7 |
| 20260507015305 | 70 | 131 | 0.0 | 0.0 | 0.00 | 0.03 | 0.03 | 82 | 1002.7 |
| 20260507015202 | 70 | 131 | 0.0 | 0.0 | 0.00 | 0.03 | 0.03 | 82 | 1002.7 |
| 20260507015102 | 70 | 137 | 0.0 | 0.0 | 0.00 | 0.03 | 0.03 | 82 | 1002.7 |
| 20260507015002 | 70 | 92 | 0.0 | 0.0 | 0.00 | 0.03 | 0.03 | 82 | 1002.7 |
| 20260507014903 | 70 | 92 | 0.0 | 0.0 | 0.00 | 0.03 | 0.03 | 82 | 1002.6 |
| 20260507014802 | 70 | 92 | 0.0 | 0.0 | 0.00 | 0.03 | 0.03 | 82 | 1002.6 |
| 20260507014702 | 70 | 92 | 0.0 | 0.0 | 0.00 | 0.03 | 0.03 | 82 | 1002.6 |
| 20260507014603 | 70 | 92 | 0.0 | 1.0 | 0.00 | 0.03 | 0.03 | 82 | 1002.7 |
| 20260507014503 | 70 | 92 | 0.0 | 1.0 | 0.00 | 0.03 | 0.03 | 82 | 1002.6 |
| 20260507014402 | 70 | 90 | 0.0 | 1.0 | 0.00 | 0.03 | 0.03 | 82 | 1002.6 |
| 20260507014302 | 70 | 90 | 0.0 | 1.0 | 0.00 | 0.03 | 0.03 | 82 | 1002.6 |
| 20260507014202 | 70 | 90 | 0.0 | 1.0 | 0.00 | 0.03 | 0.03 | 82 | 1002.6 |
| 20260507014102 | 70 | 92 | 0.0 | 1.0 | 0.00 | 0.03 | 0.03 | 82 | 1002.5 |
| 20260507014002 | 70 | 92 | 0.0 | 1.0 | 0.00 | 0.03 | 0.03 | 82 | 1002.5 |
| 20260507013902 | 71 | 92 | 0.0 | 1.0 | 0.00 | 0.03 | 0.03 | 82 | 1002.5 |
| 20260507013803 | 71 | 92 | 0.0 | 1.0 | 0.00 | 0.03 | 0.03 | 82 | 1002.5 |
| 20260507013702 | 71 | 92 | 0.0 | 1.0 | 0.00 | 0.03 | 0.03 | 82 | 1002.4 |
| 20260507013608 | 71 | 24 | 0.0 | 1.0 | 0.00 | 0.03 | 0.03 | 82 | 1002.4 |
| 20260507013503 | 71 | 85 | 0.0 | 1.0 | 0.00 | 0.03 | 0.03 | 82 | 1002.3 |
| 20260507013402 | 71 | 85 | 0.0 | 1.0 | 0.00 | 0.03 | 0.03 | 82 | 1002.3 |
| 20260507013302 | 71 | 86 | 0.0 | 1.0 | 0.00 | 0.03 | 0.03 | 82 | 1002.2 |
| 20260507013202 | 71 | 110 | 0.0 | 0.0 | 0.00 | 0.03 | 0.03 | 82 | 1002.2 |
| 20260507013103 | 71 | 110 | 0.0 | 0.0 | 0.00 | 0.03 | 0.03 | 82 | 1002.2 |
| 20260507013005 | 71 | 110 | 0.0 | 0.0 | 0.00 | 0.03 | 0.03 | 82 | 1002.1 |
| 20260507012903 | 71 | 110 | 0.0 | 0.0 | 0.00 | 0.03 | 0.03 | 82 | 1002.2 |
| 20260507012802 | 71 | 110 | 0.0 | 0.0 | 0.00 | 0.03 | 0.03 | 82 | 1002.2 |
| 20260507012701 | 71 | 110 | 0.0 | 0.0 | 0.00 | 0.03 | 0.03 | 82 | 1002.2 |
| 20260507012604 | 71 | 110 | 0.0 | 0.0 | 0.00 | 0.03 | 0.03 | 82 | 1002.2 |
| 20260507012503 | 71 | 110 | 0.0 | 0.0 | 0.00 | 0.03 | 0.03 | 82 | 1002.1 |
| 20260507012403 | 71 | 110 | 0.0 | 2.0 | 0.00 | 0.03 | 0.03 | 82 | 1002.2 |
| 20260507012305 | 71 | 110 | 0.0 | 2.0 | 0.00 | 0.03 | 0.03 | 82 | 1002.2 |
| 20260507012204 | 71 | 110 | 0.0 | 2.0 | 0.00 | 0.03 | 0.03 | 82 | 1002.1 |
| 20260507012102 | 71 | 110 | 0.0 | 2.0 | 0.00 | 0.03 | 0.03 | 82 | 1002.1 |
| 20260507012002 | 71 | 110 | 0.0 | 2.0 | 0.00 | 0.03 | 0.03 | 82 | 1002.1 |
| 20260507011903 | 71 | 314 | 0.0 | 2.0 | 0.00 | 0.03 | 0.03 | 82 | 1002.1 |
| 20260507011803 | 71 | 314 | 0.0 | 2.0 | 0.00 | 0.03 | 0.03 | 82 | 1002.1 |
| 20260507011702 | 71 | 314 | 0.0 | 2.0 | 0.00 | 0.03 | 0.03 | 82 | 1002.2 |
| 20260507011604 | 71 | 314 | 0.0 | 5.0 | 0.00 | 0.03 | 0.03 | 82 | 1002.1 |
| 20260507011502 | 71 | 338 | 0.0 | 5.0 | 0.00 | 0.03 | 0.03 | 82 | 1002.1 |
| 20260507011402 | 71 | 93 | 0.0 | 5.0 | 0.00 | 0.03 | 0.03 | 82 | 1002.0 |
| 20260507011303 | 71 | 93 | 0.0 | 5.0 | 0.00 | 0.03 | 0.03 | 82 | 1002.1 |
| 20260507011203 | 71 | 93 | 0.0 | 5.0 | 0.00 | 0.03 | 0.03 | 82 | 1002.0 |
| 20260507011103 | 71 | 93 | 0.0 | 5.0 | 0.00 | 0.03 | 0.03 | 82 | 1002.1 |
| 20260507011002 | 71 | 93 | 0.0 | 5.0 | 0.00 | 0.03 | 0.03 | 82 | 1002.1 |
| 20260507010902 | 71 | 96 | 0.0 | 5.0 | 0.00 | 0.03 | 0.03 | 82 | 1002.2 |
| 20260507010802 | 71 | 90 | 1.0 | 5.0 | 0.00 | 0.03 | 0.03 | 82 | 1002.1 |
| 20260507010704 | 71 | 90 | 1.0 | 5.0 | 0.00 | 0.03 | 0.03 | 82 | 1002.2 |
| 20260507010602 | 71 | 72 | 0.0 | 1.0 | 0.00 | 0.03 | 0.03 | 82 | 1002.1 |
| 20260507010503 | 71 | 72 | 0.0 | 1.0 | 0.00 | 0.03 | 0.03 | 82 | 1002.0 |
| 20260507010402 | 72 | 72 | 0.0 | 1.0 | 0.00 | 0.03 | 0.03 | 82 | 1001.9 |
| 20260507010304 | 72 | 116 | 0.0 | 1.0 | 0.00 | 0.03 | 0.03 | 82 | 1002.0 |
| 20260507010203 | 72 | 116 | 0.0 | 1.0 | 0.00 | 0.03 | 0.03 | 82 | 1001.9 |
| 20260507010003 | 72 | 252 | 0.0 | 1.0 | 0.00 | 0.03 | 0.03 | 82 | 1002.0 |
| 20260507005903 | 72 | 159 | 0.0 | 1.0 | 0.00 | 0.03 | 0.03 | 82 | 1001.9 |
| 20260507005802 | 72 | 159 | 0.0 | 1.0 | 0.00 | 0.03 | 0.03 | 82 | 1001.9 |
| 20260507005703 | 72 | 159 | 0.0 | 3.0 | 0.00 | 0.03 | 0.03 | 82 | 1001.9 |
| 20260507005602 | 72 | 159 | 0.0 | 3.0 | 0.00 | 0.03 | 0.03 | 82 | 1002.0 |
| 20260507005504 | 72 | 159 | 0.0 | 3.0 | 0.00 | 0.03 | 0.03 | 82 | 1001.9 |
| 20260507005402 | 72 | 185 | 0.0 | 3.0 | 0.00 | 0.03 | 0.03 | 82 | 1001.9 |
| 20260507005305 | 72 | 185 | 0.0 | 3.0 | 0.00 | 0.03 | 0.03 | 82 | 1001.9 |
| 20260507005202 | 72 | 185 | 0.0 | 3.0 | 0.00 | 0.03 | 0.03 | 82 | 1001.9 |
| 20260507005101 | 72 | 185 | 0.0 | 3.0 | 0.00 | 0.03 | 0.03 | 82 | 1001.9 |
| 20260507005002 | 72 | 192 | 0.0 | 3.0 | 0.00 | 0.03 | 0.03 | 82 | 1002.0 |
| 20260507004902 | 72 | 178 | 1.0 | 3.0 | 0.00 | 0.03 | 0.03 | 82 | 1001.9 |
| 20260507004802 | 72 | 106 | 1.0 | 3.0 | 0.00 | 0.03 | 0.03 | 82 | 1001.9 |
| 20260507004702 | 72 | 135 | 0.0 | 2.0 | 0.00 | 0.03 | 0.03 | 82 | 1001.8 |
| 20260507004602 | 72 | 44 | 0.0 | 2.0 | 0.00 | 0.03 | 0.03 | 82 | 1001.7 |
| 20260507004504 | 72 | 44 | 0.0 | 3.0 | 0.00 | 0.03 | 0.03 | 82 | 1001.7 |
| 20260507004403 | 72 | 110 | 0.0 | 3.0 | 0.00 | 0.03 | 0.03 | 82 | 1001.7 |
| 20260507004302 | 72 | 110 | 0.0 | 3.0 | 0.00 | 0.03 | 0.03 | 82 | 1001.7 |
| 20260507004203 | 72 | 110 | 0.0 | 3.0 | 0.00 | 0.03 | 0.03 | 82 | 1001.6 |
| 20260507004102 | 72 | 110 | 0.0 | 3.0 | 0.00 | 0.03 | 0.03 | 82 | 1001.7 |
| 20260507004002 | 72 | 106 | 0.0 | 3.0 | 0.00 | 0.03 | 0.03 | 82 | 1001.7 |
| 20260507003903 | 72 | 111 | 0.0 | 3.0 | 0.00 | 0.03 | 0.03 | 82 | 1001.7 |
| 20260507003802 | 72 | 172 | 0.0 | 3.0 | 0.00 | 0.03 | 0.03 | 82 | 1001.8 |
| 20260507003703 | 73 | 180 | 0.0 | 3.0 | 0.00 | 0.03 | 0.03 | 82 | 1001.7 |
| 20260507003603 | 73 | 180 | 0.0 | 3.0 | 0.00 | 0.03 | 0.03 | 82 | 1001.6 |
| 20260507003503 | 73 | 124 | 0.0 | 2.0 | 0.00 | 0.03 | 0.03 | 82 | 1001.6 |
| 20260507003403 | 73 | 124 | 0.0 | 2.0 | 0.00 | 0.03 | 0.03 | 82 | 1001.7 |
| 20260507003302 | 73 | 124 | 0.0 | 2.0 | 0.00 | 0.03 | 0.03 | 82 | 1001.6 |
| 20260507003202 | 73 | 171 | 0.0 | 2.0 | 0.00 | 0.03 | 0.03 | 82 | 1001.6 |
| 20260507003110 | 73 | 171 | 0.0 | 2.0 | 0.00 | 0.03 | 0.03 | 82 | 1001.6 |
| 20260507003001 | 73 | 13 | 0.0 | 2.0 | 0.00 | 0.03 | 0.03 | 82 | 1001.6 |
| 20260507002904 | 73 | 11 | 0.0 | 2.0 | 0.00 | 0.03 | 0.03 | 82 | 1001.5 |
| 20260507002802 | 73 | 124 | 0.0 | 2.0 | 0.00 | 0.03 | 0.03 | 82 | 1001.5 |
| 20260507002702 | 73 | 172 | 0.0 | 2.0 | 0.00 | 0.03 | 0.03 | 82 | 1001.5 |
| 20260507002607 | 73 | 175 | 0.0 | 4.0 | 0.00 | 0.03 | 0.03 | 82 | 1001.5 |
| 20260507002503 | 73 | 175 | 0.0 | 4.0 | 0.00 | 0.03 | 0.03 | 82 | 1001.5 |
| 20260507002402 | 73 | 175 | 0.0 | 4.0 | 0.00 | 0.03 | 0.03 | 82 | 1001.5 |
| 20260507002305 | 73 | 250 | 0.0 | 4.0 | 0.00 | 0.03 | 0.03 | 82 | 1001.5 |
| 20260507002201 | 73 | 250 | 0.0 | 4.0 | 0.00 | 0.03 | 0.03 | 82 | 1001.5 |
| 20260507002109 | 73 | 250 | 0.0 | 4.0 | 0.00 | 0.03 | 0.03 | 82 | 1001.4 |
| 20260507002002 | 73 | 250 | 0.0 | 4.0 | 0.00 | 0.03 | 0.03 | 82 | 1001.4 |
| 20260507001903 | 73 | 250 | 0.0 | 4.0 | 0.00 | 0.03 | 0.03 | 81 | 1001.5 |
| 20260507001803 | 73 | 14 | 1.0 | 4.0 | 0.00 | 0.03 | 0.03 | 81 | 1001.4 |
| 20260507001703 | 73 | 124 | 2.0 | 4.0 | 0.00 | 0.03 | 0.03 | 81 | 1001.4 |
| 20260507001604 | 74 | 51 | 1.0 | 4.0 | 0.00 | 0.03 | 0.03 | 82 | 1001.3 |
| 20260507001502 | 74 | 131 | 0.0 | 1.0 | 0.00 | 0.03 | 0.03 | 82 | 1001.4 |
| 20260507001402 | 74 | 131 | 0.0 | 1.0 | 0.00 | 0.03 | 0.03 | 82 | 1001.3 |
| 20260507001302 | 74 | 131 | 0.0 | 1.0 | 0.00 | 0.03 | 0.03 | 82 | 1001.3 |
| 20260507001203 | 74 | 131 | 0.0 | 1.0 | 0.00 | 0.03 | 0.03 | 82 | 1001.3 |
| 20260507001102 | 74 | 131 | 0.0 | 1.0 | 0.00 | 0.03 | 0.03 | 82 | 1001.3 |
| 20260507001004 | 74 | 131 | 0.0 | 1.0 | 0.00 | 0.03 | 0.03 | 82 | 1001.2 |
| 20260507000902 | 74 | 131 | 0.0 | 1.0 | 0.00 | 0.03 | 0.03 | 82 | 1001.3 |
| 20260507000803 | 74 | 131 | 0.0 | 1.0 | 0.00 | 0.03 | 0.03 | 82 | 1001.2 |
| 20260507000702 | 74 | 131 | 0.0 | 1.0 | 0.00 | 0.03 | 0.03 | 82 | 1001.2 |
| 20260507000603 | 74 | 138 | 0.0 | 1.0 | 0.00 | 0.03 | 0.03 | 82 | 1001.2 |
| 20260507000505 | 74 | 327 | 0.0 | 1.0 | 0.00 | 0.03 | 0.03 | 82 | 1001.2 |
| 20260507000405 | 74 | 327 | 0.0 | 1.0 | 0.00 | 0.03 | 0.03 | 82 | 1001.2 |
| 20260507000302 | 74 | 327 | 0.0 | 1.0 | 0.00 | 0.03 | 0.03 | 81 | 1001.2 |
| 20260507000204 | 74 | 327 | 0.0 | 1.0 | 0.00 | 0.03 | 0.03 | 81 | 1001.1 |
| 20260507000003 | 74 | 327 | 0.0 | 1.0 | 0.00 | 0.03 | 0.03 | 81 | 1001.1 |
| 20260506235902 | 74 | 327 | 0.0 | 1.0 | 0.00 | 0.03 | 0.03 | 81 | 1001.2 |
| 20260506235804 | 74 | 100 | 0.0 | 1.0 | 0.00 | 0.03 | 0.03 | 81 | 1001.2 |
| 20260506235703 | 74 | 100 | 0.0 | 1.0 | 0.00 | 0.03 | 0.03 | 81 | 1001.2 |
| 20260506235601 | 74 | 100 | 0.0 | 1.0 | 0.00 | 0.03 | 0.03 | 81 | 1001.2 |
| 20260506235503 | 74 | 100 | 0.0 | 1.0 | 0.00 | 0.03 | 0.03 | 81 | 1001.2 |
| 20260506235402 | 75 | 90 | 0.0 | 1.0 | 0.00 | 0.03 | 0.03 | 81 | 1001.3 |
| 20260506235306 | 75 | 90 | 0.0 | 1.0 | 0.00 | 0.03 | 0.03 | 81 | 1001.3 |
| 20260506235205 | 75 | 130 | 0.0 | 1.0 | 0.00 | 0.03 | 0.03 | 81 | 1001.3 |
| 20260506235102 | 75 | 130 | 0.0 | 1.0 | 0.00 | 0.03 | 0.03 | 81 | 1001.2 |
| 20260506235003 | 75 | 130 | 0.0 | 1.0 | 0.00 | 0.03 | 0.03 | 81 | 1001.3 |
| 20260506234902 | 75 | 138 | 0.0 | 3.0 | 0.00 | 0.03 | 0.03 | 81 | 1001.3 |
| 20260506234803 | 75 | 138 | 0.0 | 3.0 | 0.00 | 0.03 | 0.03 | 81 | 1001.3 |
| 20260506234709 | 75 | 130 | 0.0 | 3.0 | 0.00 | 0.03 | 0.03 | 81 | 1001.2 |
| 20260506234602 | 75 | 134 | 0.0 | 3.0 | 0.00 | 0.03 | 0.03 | 81 | 1001.3 |
| 20260506234503 | 75 | 100 | 0.0 | 3.0 | 0.00 | 0.03 | 0.03 | 81 | 1001.2 |
| 20260506234403 | 75 | 100 | 0.0 | 3.0 | 0.00 | 0.03 | 0.03 | 81 | 1001.2 |
| 20260506234303 | 76 | 78 | 0.0 | 3.0 | 0.00 | 0.03 | 0.03 | 81 | 1001.2 |
| 20260506234202 | 76 | 99 | 0.0 | 3.0 | 0.00 | 0.03 | 0.03 | 81 | 1001.2 |
| 20260506234102 | 76 | 99 | 1.0 | 3.0 | 0.00 | 0.03 | 0.03 | 81 | 1001.2 |
| 20260506234002 | 76 | 103 | 1.0 | 3.0 | 0.00 | 0.03 | 0.03 | 81 | 1001.1 |
| 20260506233903 | 76 | 99 | 1.0 | 3.0 | 0.00 | 0.03 | 0.03 | 81 | 1001.1 |
| 20260506233804 | 76 | 120 | 0.0 | 1.0 | 0.00 | 0.03 | 0.03 | 81 | 1001.2 |
| 20260506233703 | 76 | 120 | 0.0 | 1.0 | 0.00 | 0.03 | 0.03 | 81 | 1001.2 |
| 20260506233603 | 76 | 120 | 0.0 | 1.0 | 0.00 | 0.03 | 0.03 | 81 | 1001.1 |
| 20260506233504 | 77 | 110 | 0.0 | 1.0 | 0.00 | 0.03 | 0.03 | 81 | 1001.1 |
| 20260506233405 | 77 | 110 | 0.0 | 1.0 | 0.00 | 0.03 | 0.03 | 81 | 1001.1 |
| 20260506233303 | 77 | 110 | 0.0 | 2.0 | 0.00 | 0.03 | 0.03 | 81 | 1001.1 |
| 20260506233204 | 77 | 110 | 0.0 | 2.0 | 0.00 | 0.03 | 0.03 | 81 | 1001.0 |
| 20260506233104 | 77 | 109 | 0.0 | 2.0 | 0.00 | 0.03 | 0.03 | 81 | 1001.0 |
| 20260506233006 | 77 | 55 | 0.0 | 4.0 | 0.00 | 0.03 | 0.03 | 81 | 1001.0 |
| 20260506232903 | 77 | 55 | 0.0 | 4.0 | 0.00 | 0.03 | 0.03 | 81 | 1001.0 |
| 20260506232804 | 77 | 56 | 0.0 | 4.0 | 0.00 | 0.03 | 0.03 | 81 | 1001.0 |
| 20260506232702 | 77 | 56 | 0.0 | 4.0 | 0.00 | 0.03 | 0.03 | 81 | 1001.0 |
| 20260506232604 | 77 | 49 | 0.0 | 4.0 | 0.00 | 0.03 | 0.03 | 81 | 1001.0 |
| 20260506232503 | 78 | 49 | 0.0 | 4.0 | 0.00 | 0.03 | 0.03 | 81 | 1000.9 |
| 20260506232404 | 78 | 334 | 0.0 | 4.0 | 0.00 | 0.03 | 0.03 | 81 | 1001.0 |
| 20260506232306 | 78 | 123 | 0.0 | 4.0 | 0.00 | 0.03 | 0.03 | 81 | 1000.9 |
| 20260506232203 | 78 | 135 | 1.0 | 4.0 | 0.00 | 0.03 | 0.03 | 81 | 1000.9 |
| 20260506232104 | 78 | 324 | 0.0 | 4.0 | 0.01 | 0.03 | 0.03 | 81 | 1000.9 |
| 20260506232004 | 78 | 148 | 0.0 | 2.0 | 0.01 | 0.03 | 0.03 | 81 | 1000.9 |
| 20260506231904 | 78 | 148 | 0.0 | 2.0 | 0.01 | 0.03 | 0.03 | 81 | 1000.9 |
| 20260506231804 | 78 | 148 | 0.0 | 2.0 | 0.01 | 0.03 | 0.03 | 82 | 1000.8 |
| 20260506231703 | 79 | 93 | 0.0 | 2.0 | 0.01 | 0.03 | 0.03 | 82 | 1000.8 |
| 20260506231602 | 79 | 90 | 0.0 | 2.0 | 0.01 | 0.03 | 0.03 | 82 | 1000.8 |
| 20260506231504 | 79 | 66 | 0.0 | 2.0 | 0.01 | 0.03 | 0.03 | 82 | 1000.8 |
| 20260506231403 | 79 | 55 | 0.0 | 3.0 | 0.01 | 0.03 | 0.03 | 82 | 1000.7 |
| 20260506231303 | 79 | 59 | 0.0 | 6.0 | 0.01 | 0.03 | 0.03 | 82 | 1000.7 |
| 20260506231203 | 80 | 87 | 0.0 | 6.0 | 0.01 | 0.03 | 0.03 | 82 | 1000.7 |
| 20260506231108 | 80 | 145 | 0.0 | 6.0 | 0.01 | 0.03 | 0.03 | 82 | 1000.6 |
| 20260506231004 | 80 | 145 | 0.0 | 6.0 | 0.01 | 0.03 | 0.03 | 82 | 1000.7 |
| 20260506230902 | 80 | 145 | 1.0 | 6.0 | 0.01 | 0.03 | 0.03 | 82 | 1000.6 |
| 20260506230802 | 80 | 145 | 1.0 | 6.0 | 0.01 | 0.03 | 0.03 | 82 | 1000.6 |
| 20260506230703 | 80 | 42 | 0.0 | 6.0 | 0.01 | 0.03 | 0.03 | 82 | 1000.6 |
| 20260506230604 | 80 | 1 | 1.0 | 6.0 | 0.01 | 0.03 | 0.03 | 82 | 1000.5 |
| 20260506230504 | 81 | 324 | 1.0 | 6.0 | 0.01 | 0.03 | 0.03 | 82 | 1000.5 |
| 20260506230402 | 81 | 78 | 1.0 | 6.0 | 0.01 | 0.03 | 0.03 | 82 | 1000.5 |
| 20260506230303 | 81 | 302 | 0.0 | 0.0 | 0.01 | 0.03 | 0.03 | 83 | 1000.5 |
| 20260506230201 | 81 | 300 | 0.0 | 0.0 | 0.01 | 0.03 | 0.03 | 83 | 1000.4 |
| 20260506230103 | 81 | 92 | 0.0 | 0.0 | 0.01 | 0.03 | 0.03 | 83 | 1000.4 |
| 20260506230002 | 81 | 137 | 0.0 | 0.0 | 0.01 | 0.02 | 0.03 | 83 | 1000.4 |
| 20260506225903 | 81 | 135 | 0.0 | 0.0 | 0.01 | 0.02 | 0.03 | 83 | 1000.4 |
| 20260506225804 | 81 | 94 | 0.0 | 1.0 | 0.01 | 0.02 | 0.03 | 83 | 1000.3 |
| 20260506225656 | 82 | 94 | 0.0 | 1.0 | 0.01 | 0.02 | 0.03 | 83 | 1000.3 |
| 20260506225553 | 82 | 214 | 0.0 | 1.0 | 0.02 | 0.02 | 0.03 | 83 | 1000.4 |
| 20260506225452 | 82 | 214 | 0.0 | 1.0 | 0.03 | 0.02 | 0.03 | 83 | 1000.4 |
| 20260506225352 | 82 | 214 | 0.0 | 1.0 | 0.03 | 0.02 | 0.03 | 83 | 1000.4 |
| 20260506225251 | 82 | 214 | 0.0 | 1.0 | 0.03 | 0.02 | 0.03 | 83 | 1000.4 |
| 20260506225153 | 82 | 214 | 0.0 | 1.0 | 0.03 | 0.02 | 0.03 | 83 | 1000.3 |
| 20260506225052 | 82 | 226 | 0.0 | 1.0 | 0.03 | 0.02 | 0.03 | 83 | 1000.3 |
| 20260506224952 | 82 | 293 | 0.0 | 1.0 | 0.03 | 0.02 | 0.03 | 83 | 1000.3 |
| 20260506224851 | 82 | 293 | 0.0 | 1.0 | 0.03 | 0.02 | 0.03 | 83 | 1000.2 |
| 20260506224752 | 82 | 288 | 0.0 | 1.0 | 0.03 | 0.02 | 0.03 | 83 | 1000.2 |
| 20260506224651 | 82 | 185 | 0.0 | 1.0 | 0.03 | 0.02 | 0.03 | 83 | 1000.2 |
| 20260506224553 | 82 | 185 | 0.0 | 1.0 | 0.03 | 0.02 | 0.03 | 83 | 1000.2 |
| 20260506224453 | 82 | 185 | 0.0 | 1.0 | 0.03 | 0.02 | 0.03 | 83 | 1000.2 |
| 20260506224352 | 82 | 185 | 0.0 | 0.0 | 0.03 | 0.02 | 0.03 | 83 | 1000.2 |
| 20260506224252 | 82 | 185 | 0.0 | 0.0 | 0.03 | 0.02 | 0.03 | 82 | 1000.2 |
| 20260506224151 | 82 | 185 | 0.0 | 0.0 | 0.03 | 0.02 | 0.03 | 82 | 1000.3 |
| 20260506224052 | 82 | 185 | 0.0 | 0.0 | 0.03 | 0.02 | 0.03 | 82 | 1000.2 |
| 20260506223952 | 82 | 185 | 0.0 | 0.0 | 0.03 | 0.02 | 0.03 | 82 | 1000.3 |
| 20260506223851 | 82 | 185 | 0.0 | 0.0 | 0.03 | 0.02 | 0.03 | 82 | 1000.2 |
| 20260506223751 | 82 | 185 | 0.0 | 0.0 | 0.03 | 0.02 | 0.03 | 82 | 1000.2 |
| 20260506223652 | 82 | 185 | 0.0 | 0.0 | 0.03 | 0.02 | 0.03 | 82 | 1000.2 |
| 20260506223552 | 83 | 185 | 0.0 | 0.0 | 0.03 | 0.02 | 0.03 | 82 | 1000.1 |
| 20260506223452 | 83 | 185 | 0.0 | 0.0 | 0.03 | 0.02 | 0.03 | 82 | 1000.1 |
| 20260506223351 | 83 | 185 | 0.0 | 0.0 | 0.03 | 0.02 | 0.03 | 82 | 1000.1 |
| 20260506223252 | 83 | 185 | 0.0 | 0.0 | 0.03 | 0.02 | 0.03 | 82 | 1000.1 |
| 20260506223151 | 83 | 185 | 0.0 | 0.0 | 0.03 | 0.02 | 0.03 | 82 | 1000.1 |
| 20260506223052 | 83 | 185 | 0.0 | 0.0 | 0.03 | 0.02 | 0.03 | 82 | 1000.0 |
| 20260506222952 | 83 | 185 | 0.0 | 0.0 | 0.03 | 0.02 | 0.03 | 82 | 1000.0 |
| 20260506222854 | 83 | 185 | 0.0 | 0.0 | 0.03 | 0.02 | 0.03 | 82 | 1000.0 |
| 20260506222751 | 83 | 185 | 0.0 | 0.0 | 0.03 | 0.02 | 0.03 | 82 | 1000.0 |
| 20260506222651 | 83 | 185 | 0.0 | 0.0 | 0.03 | 0.02 | 0.03 | 81 | 1000.0 |
| 20260506222551 | 83 | 185 | 0.0 | 0.0 | 0.03 | 0.02 | 0.03 | 81 | 999.9 |
| 20260506222453 | 83 | 185 | 0.0 | 0.0 | 0.03 | 0.02 | 0.03 | 81 | 1000.0 |
| 20260506222351 | 83 | 185 | 0.0 | 0.0 | 0.03 | 0.02 | 0.03 | 81 | 1000.1 |
| 20260506222251 | 83 | 185 | 0.0 | 0.0 | 0.03 | 0.02 | 0.03 | 81 | 1000.0 |
| 20260506222151 | 83 | 185 | 0.0 | 0.0 | 0.03 | 0.02 | 0.02 | 81 | 1000.1 |
| 20260506222052 | 83 | 185 | 0.0 | 0.0 | 0.02 | 0.02 | 0.02 | 81 | 1000.1 |
| 20260506221951 | 83 | 185 | 0.0 | 0.0 | 0.02 | 0.02 | 0.02 | 81 | 1000.0 |
| 20260506221851 | 83 | 185 | 0.0 | 0.0 | 0.02 | 0.02 | 0.02 | 81 | 1000.0 |
| 20260506221752 | 83 | 185 | 0.0 | 0.0 | 0.02 | 0.02 | 0.02 | 81 | 1000.0 |
| 20260506221651 | 83 | 185 | 0.0 | 0.0 | 0.02 | 0.02 | 0.02 | 81 | 999.9 |
| 20260506221551 | 83 | 185 | 0.0 | 0.0 | 0.02 | 0.02 | 0.02 | 81 | 1000.0 |
| 20260506221451 | 83 | 185 | 0.0 | 0.0 | 0.02 | 0.02 | 0.02 | 81 | 999.9 |
| 20260506221350 | 84 | 185 | 0.0 | 0.0 | 0.02 | 0.02 | 0.02 | 81 | 999.9 |
| 20260506221251 | 84 | 185 | 0.0 | 0.0 | 0.02 | 0.02 | 0.02 | 81 | 1000.0 |
| 20260506221157 | 84 | 185 | 0.0 | 0.0 | 0.02 | 0.02 | 0.02 | 80 | 999.9 |
| 20260506221050 | 84 | 185 | 0.0 | 0.0 | 0.02 | 0.02 | 0.02 | 80 | 999.9 |
| 20260506220951 | 84 | 185 | 0.0 | 0.0 | 0.02 | 0.02 | 0.02 | 80 | 999.9 |
| 20260506220850 | 84 | 185 | 0.0 | 0.0 | 0.02 | 0.02 | 0.02 | 80 | 1000.0 |
| 20260506220751 | 84 | 185 | 0.0 | 0.0 | 0.02 | 0.02 | 0.02 | 80 | 999.9 |
| 20260506220655 | 84 | 185 | 0.0 | 0.0 | 0.02 | 0.02 | 0.02 | 80 | 1000.0 |
| 20260506220551 | 84 | 185 | 0.0 | 0.0 | 0.02 | 0.02 | 0.02 | 80 | 999.9 |
| 20260506220450 | 84 | 185 | 0.0 | 0.0 | 0.02 | 0.02 | 0.02 | 80 | 999.9 |
| 20260506220351 | 84 | 185 | 0.0 | 0.0 | 0.02 | 0.02 | 0.02 | 80 | 1000.0 |
| 20260506220251 | 84 | 185 | 0.0 | 0.0 | 0.02 | 0.02 | 0.02 | 80 | 999.9 |
| 20260506220152 | 84 | 185 | 0.0 | 0.0 | 0.02 | 0.02 | 0.02 | 80 | 1000.0 |
| 20260506220053 | 84 | 185 | 0.0 | 0.0 | 0.02 | 0.02 | 0.02 | 80 | 999.9 |
| 20260506215952 | 84 | 185 | 0.0 | 0.0 | 0.02 | 0.00 | 0.02 | 79 | 999.9 |
| 20260506215851 | 84 | 185 | 0.0 | 0.0 | 0.02 | 0.00 | 0.02 | 79 | 999.9 |
| 20260506215750 | 84 | 185 | 0.0 | 0.0 | 0.02 | 0.00 | 0.02 | 79 | 999.9 |
| 20260506215652 | 84 | 185 | 0.0 | 0.0 | 0.01 | 0.00 | 0.01 | 79 | 999.9 |
| 20260506215551 | 84 | 185 | 0.0 | 0.0 | 0.01 | 0.00 | 0.00 | 79 | 1000.0 |
| 20260506215450 | 84 | 185 | 0.0 | 0.0 | 0.00 | 0.00 | 0.00 | 79 | 999.9 |
| 20260506215351 | 84 | 185 | 0.0 | 0.0 | 0.00 | 0.00 | 0.00 | 79 | 999.9 |
| 20260506215251 | 84 | 185 | 0.0 | 0.0 | 0.00 | 0.00 | 0.00 | 79 | 999.9 |
| 20260506215150 | 84 | 185 | 0.0 | 0.0 | 0.00 | 0.00 | 0.00 | 79 | 999.9 |
| 20260506215051 | 84 | 185 | 0.0 | 0.0 | 0.00 | 0.00 | 0.00 | 79 | 1000.0 |
| 20260506214951 | 84 | 185 | 0.0 | 0.0 | 0.00 | 0.00 | 0.00 | 79 | 999.9 |
| 20260506214852 | 84 | 185 | 0.0 | 0.0 | 0.00 | 0.00 | 0.00 | 79 | 999.9 |
| 20260506214752 | 84 | 185 | 0.0 | 0.0 | 0.00 | 0.00 | 0.00 | 79 | 999.9 |
| 20260506214650 | 84 | 185 | 0.0 | 0.0 | 0.00 | 0.00 | 0.00 | 79 | 999.9 |
| 20260506214551 | 84 | 185 | 0.0 | 0.0 | 0.00 | 0.00 | 0.00 | 79 | 999.9 |
| 20260506214451 | 84 | 185 | 0.0 | 0.0 | 0.00 | 0.00 | 0.00 | 79 | 999.9 |
| 20260506214352 | 84 | 185 | 0.0 | 0.0 | 0.00 | 0.00 | 0.00 | 79 | 999.8 |
| 20260506214251 | 84 | 185 | 0.0 | 0.0 | 0.00 | 0.00 | 0.00 | 79 | 999.9 |
| 20260506214151 | 84 | 185 | 0.0 | 0.0 | 0.00 | 0.00 | 0.00 | 79 | 999.9 |
| 20260506214052 | 84 | 185 | 0.0 | 0.0 | 0.00 | 0.00 | 0.00 | 79 | 999.9 |
| 20260506213950 | 84 | 185 | 0.0 | 0.0 | 0.00 | 0.00 | 0.00 | 79 | 999.9 |
| 20260506213852 | 84 | 185 | 0.0 | 0.0 | 0.00 | 0.00 | 0.00 | 79 | 1000.0 |
| 20260506213750 | 84 | 185 | 0.0 | 0.0 | 0.00 | 0.00 | 0.00 | 79 | 1000.0 |
| 20260506213651 | 84 | 185 | 0.0 | 0.0 | 0.00 | 0.00 | 0.00 | 79 | 1000.0 |
| 20260506213555 | 84 | 185 | 0.0 | 0.0 | 0.00 | 0.00 | 0.00 | 78 | 1000.0 |
| 20260506213452 | 84 | 185 | 0.0 | 0.0 | 0.00 | 0.00 | 0.00 | 78 | 1000.0 |
| 20260506213350 | 84 | 185 | 0.0 | 0.0 | 0.00 | 0.00 | 0.00 | 78 | 1000.1 |
| 20260506213250 | 84 | 185 | 0.0 | 0.0 | 0.00 | 0.00 | 0.00 | 78 | 1000.0 |
| 20260506213151 | 84 | 185 | 0.0 | 0.0 | 0.00 | 0.00 | 0.00 | 78 | 1000.0 |
| 20260506213050 | 84 | 185 | 0.0 | 0.0 | 0.00 | 0.00 | 0.00 | 78 | 1000.0 |
| 20260506212951 | 84 | 185 | 0.0 | 0.0 | 0.00 | 0.00 | 0.00 | 78 | 1000.0 |
| 20260506212852 | 84 | 185 | 0.0 | 0.0 | 0.00 | 0.00 | 0.00 | 78 | 999.9 |
| 20260506212752 | 84 | 185 | 0.0 | 0.0 | 0.00 | 0.00 | 0.00 | 78 | 1000.0 |
| 20260506212649 | 84 | 185 | 0.0 | 0.0 | 0.00 | 0.00 | 0.00 | 78 | 1000.0 |
| 20260506212551 | 84 | 185 | 0.0 | 0.0 | 0.00 | 0.00 | 0.00 | 78 | 1000.0 |
| 20260506212450 | 84 | 185 | 0.0 | 0.0 | 0.00 | 0.00 | 0.00 | 78 | 1000.1 |
| 20260506212350 | 84 | 185 | 0.0 | 0.0 | 0.00 | 0.00 | 0.00 | 78 | 999.8 |
| 20260506212250 | 84 | 185 | 0.0 | 0.0 | 0.00 | 0.00 | 0.00 | 78 | 999.9 |
| 20260506212149 | 84 | 185 | 0.0 | 0.0 | 0.00 | 0.00 | 0.00 | 78 | 1000.0 |
| 20260506212052 | 84 | 185 | 0.0 | 0.0 | 0.00 | 0.00 | 0.00 | 78 | 1000.0 |
| 20260506211950 | 84 | 185 | 0.0 | 0.0 | 0.00 | 0.00 | 0.00 | 78 | 1000.0 |
| 20260506211850 | 84 | 185 | 0.0 | 0.0 | 0.00 | 0.00 | 0.00 | 78 | 1000.0 |
| 20260506211751 | 84 | 185 | 0.0 | 1.0 | 0.00 | 0.00 | 0.00 | 78 | 1000.0 |
| 20260506211651 | 84 | 185 | 0.0 | 1.0 | 0.00 | 0.00 | 0.00 | 78 | 1000.1 |
| 20260506211550 | 84 | 185 | 0.0 | 1.0 | 0.00 | 0.00 | 0.00 | 79 | 1000.1 |
| 20260506211451 | 84 | 185 | 0.0 | 1.0 | 0.00 | 0.00 | 0.00 | 79 | 1000.1 |
| 20260506211351 | 84 | 185 | 0.0 | 1.0 | 0.00 | 0.00 | 0.00 | 79 | 1000.0 |
| 20260506211249 | 84 | 185 | 0.0 | 1.0 | 0.00 | 0.00 | 0.00 | 78 | 1000.0 |
| 20260506211150 | 84 | 185 | 0.0 | 1.0 | 0.00 | 0.00 | 0.00 | 78 | 999.9 |
| 20260506211052 | 84 | 185 | 0.0 | 1.0 | 0.00 | 0.00 | 0.00 | 79 | 1000.0 |
| 20260506210949 | 84 | 185 | 0.0 | 1.0 | 0.00 | 0.00 | 0.00 | 79 | 999.9 |
| 20260506210852 | 84 | 185 | 0.0 | 1.0 | 0.00 | 0.00 | 0.00 | 79 | 1000.0 |
| 20260506210749 | 84 | 189 | 0.0 | 1.0 | 0.00 | 0.00 | 0.00 | 79 | 1000.0 |
| 20260506210650 | 84 | 189 | 0.0 | 1.0 | 0.00 | 0.00 | 0.00 | 79 | 1000.1 |
| 20260506210551 | 84 | 189 | 0.0 | 1.0 | 0.00 | 0.00 | 0.00 | 79 | 1000.1 |
| 20260506210450 | 84 | 189 | 0.0 | 1.0 | 0.00 | 0.00 | 0.00 | 79 | 1000.1 |
| 20260506210349 | 83 | 189 | 0.0 | 1.0 | 0.00 | 0.00 | 0.00 | 79 | 1000.0 |
| 20260506210249 | 83 | 189 | 0.0 | 1.0 | 0.00 | 0.00 | 0.00 | 79 | 1000.1 |
| 20260506210151 | 83 | 189 | 0.0 | 1.0 | 0.00 | 0.00 | 0.00 | 79 | 1000.1 |
| 20260506210049 | 84 | 189 | 0.0 | 1.0 | 0.00 | 0.00 | 0.00 | 78 | 1000.1 |
| 20260506205951 | 84 | 189 | 0.0 | 1.0 | 0.00 | 0.00 | 0.00 | 79 | 1000.1 |
| 20260506205851 | 84 | 189 | 1.0 | 2.0 | 0.00 | 0.00 | 0.00 | 79 | 1000.0 |
| 20260506205749 | 84 | 189 | 0.0 | 2.0 | 0.00 | 0.00 | 0.00 | 79 | 1000.0 |
| 20260506205649 | 84 | 188 | 0.0 | 2.0 | 0.00 | 0.00 | 0.00 | 80 | 1000.1 |
| 20260506205550 | 84 | 188 | 0.0 | 2.0 | 0.00 | 0.00 | 0.00 | 80 | 1000.0 |
| 20260506205449 | 84 | 189 | 0.0 | 2.0 | 0.00 | 0.00 | 0.00 | 80 | 1000.1 |
| 20260506205350 | 84 | 189 | 0.0 | 2.0 | 0.00 | 0.00 | 0.00 | 79 | 1000.1 |
| 20260506205249 | 84 | 189 | 0.0 | 2.0 | 0.00 | 0.00 | 0.00 | 79 | 1000.1 |
| 20260506205151 | 84 | 189 | 0.0 | 2.0 | 0.00 | 0.00 | 0.00 | 79 | 1000.1 |
| 20260506205049 | 84 | 189 | 0.0 | 2.0 | 0.00 | 0.00 | 0.00 | 79 | 1000.1 |
| 20260506204950 | 84 | 189 | 0.0 | 2.0 | 0.00 | 0.00 | 0.00 | 80 | 1000.2 |
| 20260506204851 | 84 | 190 | 0.0 | 1.0 | 0.00 | 0.00 | 0.00 | 80 | 1000.2 |
| 20260506204749 | 84 | 354 | 0.0 | 0.0 | 0.00 | 0.00 | 0.00 | 80 | 1000.2 |
| 20260506204652 | 84 | 354 | 0.0 | 1.0 | 0.00 | 0.00 | 0.00 | 79 | 1000.3 |
| 20260506204550 | 84 | 354 | 0.0 | 2.0 | 0.00 | 0.00 | 0.00 | 79 | 1000.3 |
| 20260506204450 | 84 | 354 | 0.0 | 2.0 | 0.00 | 0.00 | 0.00 | 79 | 1000.3 |
| 20260506204348 | 84 | 354 | 0.0 | 2.0 | 0.00 | 0.00 | 0.00 | 78 | 1000.4 |
| 20260506204249 | 84 | 354 | 0.0 | 2.0 | 0.00 | 0.00 | 0.00 | 78 | 1000.3 |
| 20260506204148 | 84 | 354 | 0.0 | 2.0 | 0.00 | 0.00 | 0.00 | 78 | 1000.3 |
| 20260506204049 | 84 | 354 | 0.0 | 2.0 | 0.00 | 0.00 | 0.00 | 78 | 1000.3 |
| 20260506203949 | 84 | 354 | 0.0 | 2.0 | 0.00 | 0.00 | 0.00 | 78 | 1000.3 |
| 20260506203849 | 84 | 354 | 0.0 | 2.0 | 0.00 | 0.00 | 0.00 | 78 | 1000.2 |
| 20260506203752 | 84 | 354 | 0.0 | 2.0 | 0.00 | 0.00 | 0.00 | 79 | 1000.2 |
| 20260506203652 | 84 | 354 | 0.0 | 2.0 | 0.00 | 0.00 | 0.00 | 79 | 1000.3 |
| 20260506203549 | 84 | 233 | 0.0 | 0.0 | 0.00 | 0.00 | 0.00 | 79 | 1000.2 |
| 20260506203449 | 84 | 233 | 0.0 | 0.0 | 0.00 | 0.00 | 0.00 | 79 | 1000.2 |
| 20260506203349 | 85 | 265 | 0.0 | 0.0 | 0.00 | 0.00 | 0.00 | 80 | 1000.2 |
| 20260506203248 | 85 | 265 | 0.0 | 1.0 | 0.00 | 0.00 | 0.00 | 80 | 1000.3 |
| 20260506203151 | 84 | 265 | 0.0 | 1.0 | 0.00 | 0.00 | 0.00 | 78 | 1000.2 |
| 20260506203051 | 84 | 265 | 0.0 | 1.0 | 0.00 | 0.00 | 0.00 | 78 | 1000.3 |
| 20260506202951 | 84 | 265 | 0.0 | 1.0 | 0.00 | 0.00 | 0.00 | 78 | 1000.3 |
| 20260506202849 | 85 | 265 | 0.0 | 1.0 | 0.00 | 0.00 | 0.00 | 78 | 1000.3 |
| 20260506202748 | 85 | 265 | 0.0 | 1.0 | 0.00 | 0.00 | 0.00 | 78 | 1000.3 |
| 20260506202648 | 84 | 265 | 0.0 | 1.0 | 0.00 | 0.00 | 0.00 | 78 | 1000.3 |
| 20260506202549 | 84 | 265 | 0.0 | 1.0 | 0.00 | 0.00 | 0.00 | 78 | 1000.3 |
| 20260506202448 | 84 | 265 | 0.0 | 2.0 | 0.00 | 0.00 | 0.00 | 79 | 1000.3 |
| 20260506202351 | 84 | 265 | 0.0 | 2.0 | 0.00 | 0.00 | 0.00 | 79 | 1000.2 |
| 20260506202248 | 84 | 252 | 0.0 | 2.0 | 0.00 | 0.00 | 0.00 | 79 | 1000.3 |
| 20260506202148 | 84 | 252 | 0.0 | 2.0 | 0.00 | 0.00 | 0.00 | 79 | 1000.3 |
| 20260506202048 | 84 | 252 | 0.0 | 2.0 | 0.00 | 0.00 | 0.00 | 79 | 1000.3 |
| 20260506201949 | 84 | 252 | 0.0 | 2.0 | 0.00 | 0.00 | 0.00 | 79 | 1000.2 |
| 20260506201849 | 83 | 158 | 0.0 | 2.0 | 0.00 | 0.00 | 0.00 | 79 | 1000.3 |
| 20260506201748 | 83 | 138 | 0.0 | 2.0 | 0.00 | 0.00 | 0.00 | 79 | 1000.3 |
| 20260506201650 | 83 | 138 | 0.0 | 2.0 | 0.00 | 0.00 | 0.00 | 81 | 1000.2 |
| 20260506201547 | 83 | 138 | 1.0 | 2.0 | 0.00 | 0.00 | 0.00 | 81 | 1000.3 |
| 20260506201440 | 83 | 138 | 0.0 | 2.0 | 0.00 | 0.00 | 0.00 | 81 | 1000.3 |
| 20260506201338 | 83 | 252 | 0.0 | 0.0 | 0.00 | 0.00 | 0.00 | 82 | 1000.4 |
| 20260506201234 | 83 | 252 | 0.0 | 0.0 | 0.00 | 0.00 | 0.00 | 82 | 1000.4 |
| 20260506201133 | 83 | 252 | 0.0 | 0.0 | 0.00 | 0.00 | 0.00 | 82 | 1000.4 |
| 20260506201031 | 83 | 252 | 0.0 | 0.0 | 0.00 | 0.00 | 0.00 | 82 | 1000.5 |
| 20260506200930 | 83 | 252 | 0.0 | 0.0 | 0.00 | 0.00 | 0.00 | 82 | 1000.5 |
| 20260506200831 | 83 | 252 | 0.0 | 0.0 | 0.00 | 0.00 | 0.00 | 82 | 1000.5 |
| 20260506200733 | 83 | 252 | 0.0 | 0.0 | 0.00 | 0.00 | 0.00 | 82 | 1000.5 |
| 20260506200631 | 82 | 252 | 0.0 | 0.0 | 0.00 | 0.00 | 0.00 | 82 | 1000.5 |
| 20260506200533 | 82 | 252 | 0.0 | 0.0 | 0.00 | 0.00 | 0.00 | 82 | 1000.5 |
| 20260506200432 | 82 | 252 | 0.0 | 0.0 | 0.00 | 0.00 | 0.00 | 82 | 1000.5 |
| 20260506200331 | 82 | 252 | 0.0 | 0.0 | 0.00 | 0.00 | 0.00 | 82 | 1000.6 |
| 20260506200233 | 81 | 252 | 0.0 | 0.0 | 0.00 | 0.00 | 0.00 | 83 | 1000.6 |
| 20260506200132 | 81 | 252 | 0.0 | 0.0 | 0.00 | 0.00 | 0.00 | 83 | 1000.6 |
| 20260506200032 | 81 | 252 | 0.0 | 0.0 | 0.00 | 0.00 | 0.00 | 83 | 1000.6 |
| 20260506195932 | 81 | 252 | 0.0 | 0.0 | 0.00 | 0.00 | 0.00 | 83 | 1000.6 |
| 20260506195833 | 81 | 252 | 0.0 | 0.0 | 0.00 | 0.00 | 0.00 | 83 | 1000.7 |
| 20260506195732 | 81 | 252 | 0.0 | 0.0 | 0.00 | 0.00 | 0.00 | 83 | 1000.7 |
| 20260506195632 | 81 | 252 | 0.0 | 0.0 | 0.00 | 0.00 | 0.00 | 83 | 1000.8 |
| 20260506195533 | 80 | 252 | 0.0 | 0.0 | 0.00 | 0.00 | 0.00 | 84 | 1000.8 |
| 20260506195431 | 80 | 252 | 0.0 | 0.0 | 0.00 | 0.00 | 0.00 | 84 | 1000.8 |
| 20260506195333 | 80 | 252 | 0.0 | 0.0 | 0.00 | 0.00 | 0.00 | 84 | 1000.8 |
| 20260506195231 | 80 | 252 | 0.0 | 0.0 | 0.00 | 0.00 | 0.00 | 84 | 1000.9 |
| 20260506195133 | 80 | 252 | 0.0 | 0.0 | 0.00 | 0.00 | 0.00 | 84 | 1000.8 |
| 20260506195033 | 80 | 252 | 0.0 | 0.0 | 0.00 | 0.00 | 0.00 | 84 | 1000.8 |
| 20260506194932 | 80 | 252 | 0.0 | 0.0 | 0.00 | 0.00 | 0.00 | 84 | 1000.9 |
| 20260506194832 | 80 | 252 | 0.0 | 0.0 | 0.00 | 0.00 | 0.00 | 84 | 1001.0 |
| 20260506194733 | 80 | 252 | 0.0 | 0.0 | 0.00 | 0.00 | 0.00 | 84 | 1000.9 |
| 20260506194631 | 80 | 252 | 0.0 | 0.0 | 0.00 | 0.00 | 0.00 | 84 | 1001.0 |
| 20260506194532 | 80 | 252 | 0.0 | 0.0 | 0.00 | 0.00 | 0.00 | 84 | 1001.0 |
| 20260506194432 | 80 | 252 | 0.0 | 0.0 | 0.00 | 0.00 | 0.00 | 84 | 1000.9 |
| 20260506194331 | 80 | 252 | 0.0 | 0.0 | 0.00 | 0.00 | 0.00 | 84 | 1000.9 |
| 20260506194238 | 80 | 252 | 0.0 | 0.0 | 0.00 | 0.00 | 0.00 | 84 | 1001.0 |
| 20260506194133 | 80 | 252 | 0.0 | 0.0 | 0.00 | 0.00 | 0.00 | 84 | 1001.0 |
| 20260506194031 | 80 | 252 | 0.0 | 0.0 | 0.00 | 0.00 | 0.00 | 84 | 1001.0 |
| 20260506193932 | 80 | 252 | 0.0 | 0.0 | 0.00 | 0.00 | 0.00 | 84 | 1001.0 |
| 20260506193830 | 80 | 252 | 0.0 | 0.0 | 0.00 | 0.00 | 0.00 | 84 | 1001.1 |
| 20260506193732 | 80 | 252 | 0.0 | 0.0 | 0.00 | 0.00 | 0.00 | 84 | 1001.0 |
| 20260506193631 | 80 | 252 | 0.0 | 0.0 | 0.00 | 0.00 | 0.00 | 84 | 1001.0 |
| 20260506193533 | 80 | 252 | 0.0 | 0.0 | 0.00 | 0.00 | 0.00 | 84 | 1001.1 |
| 20260506193431 | 80 | 252 | 0.0 | 0.0 | 0.00 | 0.00 | 0.00 | 84 | 1001.0 |
| 20260506193331 | 80 | 252 | 0.0 | 0.0 | 0.00 | 0.00 | 0.00 | 84 | 1001.0 |
| 20260506193233 | 80 | 252 | 0.0 | 0.0 | 0.00 | 0.00 | 0.00 | 84 | 1001.0 |
| 20260506193131 | 80 | 252 | 0.0 | 0.0 | 0.00 | 0.00 | 0.00 | 84 | 1001.0 |
| 20260506193031 | 80 | 252 | 0.0 | 0.0 | 0.00 | 0.00 | 0.00 | 84 | 1001.0 |
| 20260506192932 | 80 | 252 | 0.0 | 0.0 | 0.00 | 0.00 | 0.00 | 84 | 1001.0 |
| 20260506192821 | 80 | 252 | 0.0 | 0.0 | 0.00 | 0.00 | 0.00 | 84 | 1001.0 |
| 20260506192718 | 80 | 252 | 0.0 | 0.0 | 0.00 | 0.00 | 0.00 | 84 | 1001.0 |
| 20260506192613 | 80 | 252 | 0.0 | 0.0 | 0.00 | 0.00 | 0.00 | 84 | 1001.0 |
| 20260506192513 | 80 | 252 | 0.0 | 0.0 | 0.00 | 0.00 | 0.00 | 84 | 1001.0 |
| 20260506192403 | 80 | 252 | 0.0 | 0.0 | 0.00 | 0.00 | 0.00 | 84 | 1001.0 |
| 20260506192305 | 80 | 252 | 0.0 | 0.0 | 0.00 | 0.00 | 0.00 | 83 | 1001.1 |
| 20260506192204 | 80 | 252 | 0.0 | 0.0 | 0.00 | 0.00 | 0.00 | 83 | 1001.0 |
| 20260506192104 | 80 | 252 | 0.0 | 0.0 | 0.00 | 0.00 | 0.00 | 83 | 1001.1 |
| 20260506192003 | 80 | 252 | 0.0 | 0.0 | 0.00 | 0.00 | 0.00 | 83 | 1001.1 |
| 20260506191903 | 80 | 252 | 0.0 | 0.0 | 0.00 | 0.00 | 0.00 | 83 | 1001.1 |
| 20260506191802 | 80 | 252 | 0.0 | 0.0 | 0.00 | 0.00 | 0.00 | 83 | 1001.1 |
| 20260506191703 | 80 | 252 | 0.0 | 0.0 | 0.00 | 0.00 | 0.00 | 83 | 1001.1 |
| 20260506191604 | 80 | 252 | 0.0 | 0.0 | 0.00 | 0.00 | 0.00 | 83 | 1001.1 |
| 20260506191504 | 80 | 252 | 0.0 | 0.0 | 0.00 | 0.00 | 0.00 | 83 | 1001.2 |
| 20260506191348 | 80 | 252 | 0.0 | 0.0 | 0.00 | 0.00 | 0.00 | 83 | 1001.1 |
| 20260506191248 | 80 | 252 | 0.0 | 0.0 | 0.00 | 0.00 | 0.00 | 83 | 1001.1 |
| 20260506191147 | 80 | 252 | 0.0 | 0.0 | 0.00 | 0.00 | 0.00 | 83 | 1001.0 |
| 20260506191047 | 80 | 252 | 0.0 | 0.0 | 0.00 | 0.00 | 0.00 | 83 | 1001.0 |
| 20260506190947 | 80 | 252 | 0.0 | 0.0 | 0.00 | 0.00 | 0.00 | 83 | 1001.0 |
| 20260506190848 | 80 | 252 | 0.0 | 0.0 | 0.00 | 0.00 | 0.00 | 83 | 1001.0 |
| 20260506190747 | 81 | 252 | 0.0 | 0.0 | 0.00 | 0.00 | 0.00 | 83 | 1001.1 |
| 20260506190646 | 81 | 252 | 0.0 | 0.0 | 0.00 | 0.00 | 0.00 | 83 | 1001.0 |
| 20260506190546 | 81 | 250 | 0.0 | 0.0 | 0.00 | 0.00 | 0.00 | 83 | 1001.1 |
| 20260506190447 | 81 | 250 | 0.0 | 0.0 | 0.00 | 0.00 | 0.00 | 83 | 1001.0 |
| 20260506190346 | 81 | 250 | 0.0 | 0.0 | 0.00 | 0.00 | 0.00 | 83 | 1001.1 |
| 20260506190247 | 81 | 250 | 0.0 | 0.0 | 0.00 | 0.00 | 0.00 | 83 | 1001.2 |
| 20260506190146 | 81 | 290 | 0.0 | 0.0 | 0.00 | 0.00 | 0.00 | 83 | 1001.2 |
| 20260506190046 | 81 | 290 | 0.0 | 0.0 | 0.00 | 0.00 | 0.00 | 83 | 1001.2 |
| 20260506185948 | 81 | 290 | 0.0 | 0.0 | 0.00 | 0.00 | 0.00 | 82 | 1001.1 |
| 20260506185847 | 81 | 0 | 0.0 | 0.0 | 0.00 | 0.00 | 0.00 | 82 | 1001.2 |
| 20260506185747 | 81 | 0 | 0.0 | 0.0 | 0.00 | 0.00 | 0.00 | 83 | 1001.1 |
| 20260506185647 | 81 | 0 | 0.0 | 0.0 | 0.00 | 0.00 | 0.00 | 83 | 1001.1 |
| 20260506185547 | 81 | 0 | 0.0 | 0.0 | 0.00 | 0.00 | 0.00 | 82 | 1001.2 |
| 20260506185447 | 81 | 0 | 0.0 | 0.0 | 0.00 | 0.00 | 0.00 | 82 | 1001.2 |
| 20260506185348 | 81 | 1 | 0.0 | 1.0 | 0.00 | 0.00 | 0.00 | 82 | 1001.2 |
| 20260506185247 | 81 | 128 | 0.0 | 1.0 | 0.00 | 0.00 | 0.00 | 82 | 1001.2 |
| 20260506185148 | 81 | 128 | 0.0 | 1.0 | 0.00 | 0.00 | 0.00 | 82 | 1001.1 |
| 20260506185046 | 81 | 128 | 0.0 | 1.0 | 0.00 | 0.00 | 0.00 | 82 | 1001.2 |
| 20260506184947 | 82 | 128 | 0.0 | 1.0 | 0.00 | 0.00 | 0.00 | 82 | 1001.2 |
| 20260506184846 | 82 | 135 | 0.0 | 1.0 | 0.00 | 0.00 | 0.00 | 82 | 1001.2 |
| 20260506184746 | 82 | 135 | 0.0 | 1.0 | 0.00 | 0.00 | 0.00 | 82 | 1001.2 |
| 20260506184646 | 82 | 135 | 0.0 | 1.0 | 0.00 | 0.00 | 0.00 | 82 | 1001.2 |
| 20260506184546 | 82 | 135 | 0.0 | 1.0 | 0.00 | 0.00 | 0.00 | 81 | 1001.3 |
| 20260506184448 | 82 | 135 | 0.0 | 1.0 | 0.00 | 0.00 | 0.00 | 81 | 1001.3 |
| 20260506184346 | 82 | 168 | 0.0 | 1.0 | 0.00 | 0.00 | 0.00 | 81 | 1001.3 |
| 20260506184246 | 83 | 172 | 0.0 | 1.0 | 0.00 | 0.00 | 0.00 | 81 | 1001.3 |
| 20260506184146 | 83 | 172 | 0.0 | 1.0 | 0.00 | 0.00 | 0.00 | 81 | 1001.2 |
| 20260506184047 | 83 | 172 | 0.0 | 1.0 | 0.00 | 0.00 | 0.00 | 81 | 1001.2 |
| 20260506183948 | 83 | 172 | 0.0 | 1.0 | 0.00 | 0.00 | 0.00 | 81 | 1001.2 |
| 20260506183846 | 82 | 172 | 0.0 | 1.0 | 0.00 | 0.00 | 0.00 | 81 | 1001.2 |
| 20260506183747 | 82 | 213 | 0.0 | 1.0 | 0.00 | 0.00 | 0.00 | 82 | 1001.2 |
| 20260506183657 | 82 | 213 | 0.0 | 0.0 | 0.00 | 0.00 | 0.00 | 82 | 1001.2 |
| 20260506183547 | 82 | 213 | 0.0 | 0.0 | 0.00 | 0.00 | 0.00 | 82 | 1001.3 |
| 20260506183447 | 82 | 230 | 0.0 | 0.0 | 0.00 | 0.00 | 0.00 | 82 | 1001.2 |
| 20260506183347 | 82 | 230 | 0.0 | 0.0 | 0.00 | 0.00 | 0.00 | 82 | 1001.2 |
| 20260506183246 | 82 | 230 | 0.0 | 0.0 | 0.00 | 0.00 | 0.00 | 82 | 1001.2 |
| 20260506183155 | 82 | 230 | 0.0 | 0.0 | 0.00 | 0.00 | 0.00 | 82 | 1001.2 |
| 20260506183046 | 81 | 230 | 0.0 | 0.0 | 0.00 | 0.00 | 0.00 | 83 | 1001.2 |
| 20260506182945 | 81 | 230 | 0.0 | 0.0 | 0.00 | 0.00 | 0.00 | 83 | 1001.2 |
| 20260506182845 | 81 | 230 | 0.0 | 0.0 | 0.00 | 0.00 | 0.00 | 83 | 1001.2 |
| 20260506182746 | 81 | 230 | 0.0 | 0.0 | 0.00 | 0.00 | 0.00 | 83 | 1001.3 |
| 20260506182647 | 81 | 230 | 0.0 | 0.0 | 0.00 | 0.00 | 0.00 | 83 | 1001.2 |
| 20260506182548 | 81 | 230 | 0.0 | 0.0 | 0.00 | 0.00 | 0.00 | 83 | 1001.4 |
| 20260506182447 | 81 | 230 | 0.0 | 0.0 | 0.00 | 0.00 | 0.00 | 83 | 1001.3 |
| 20260506182347 | 81 | 230 | 0.0 | 0.0 | 0.00 | 0.00 | 0.00 | 83 | 1001.3 |
| 20260506182245 | 81 | 230 | 0.0 | 0.0 | 0.00 | 0.00 | 0.00 | 83 | 1001.3 |
| 20260506182149 | 81 | 230 | 0.0 | 0.0 | 0.00 | 0.00 | 0.00 | 83 | 1001.4 |
| 20260506182045 | 81 | 230 | 0.0 | 0.0 | 0.00 | 0.00 | 0.00 | 83 | 1001.4 |
| 20260506181945 | 80 | 230 | 0.0 | 0.0 | 0.00 | 0.00 | 0.00 | 84 | 1001.4 |
| 20260506181847 | 80 | 230 | 0.0 | 0.0 | 0.00 | 0.00 | 0.00 | 84 | 1001.4 |
| 20260506181747 | 80 | 230 | 0.0 | 0.0 | 0.00 | 0.00 | 0.00 | 84 | 1001.4 |
| 20260506181649 | 80 | 230 | 0.0 | 0.0 | 0.00 | 0.00 | 0.00 | 84 | 1001.6 |
| 20260506181540 | 80 | 230 | 0.0 | 0.0 | 0.00 | 0.00 | 0.00 | 84 | 1001.5 |
| 20260506181434 | 80 | 230 | 0.0 | 0.0 | 0.00 | 0.00 | 0.00 | 84 | 1001.5 |
| 20260506181331 | 80 | 230 | 0.0 | 0.0 | 0.00 | 0.00 | 0.00 | 83 | 1001.6 |
| 20260506181233 | 80 | 230 | 0.0 | 0.0 | 0.00 | 0.00 | 0.00 | 83 | 1001.6 |
| 20260506181135 | 80 | 230 | 0.0 | 0.0 | 0.00 | 0.00 | 0.00 | 83 | 1001.6 |
| 20260506181033 | 80 | 230 | 0.0 | 0.0 | 0.00 | 0.00 | 0.00 | 84 | 1001.7 |
| 20260506180929 | 80 | 230 | 0.0 | 0.0 | 0.00 | 0.00 | 0.00 | 84 | 1001.7 |
| 20260506180827 | 80 | 230 | 0.0 | 0.0 | 0.00 | 0.00 | 0.00 | 84 | 1001.7 |
| 20260506180726 | 80 | 230 | 0.0 | 0.0 | 0.00 | 0.00 | 0.00 | 84 | 1001.7 |
| 20260506180623 | 80 | 230 | 0.0 | 0.0 | 0.00 | 0.00 | 0.00 | 84 | 1001.8 |
| 20260506180520 | 80 | 230 | 0.0 | 0.0 | 0.00 | 0.00 | 0.00 | 84 | 1001.8 |
| 20260506180420 | 80 | 230 | 0.0 | 0.0 | 0.00 | 0.00 | 0.00 | 84 | 1001.8 |
| 20260506180319 | 80 | 230 | 0.0 | 0.0 | 0.00 | 0.00 | 0.00 | 83 | 1001.9 |
| 20260506180217 | 80 | 230 | 0.0 | 0.0 | 0.00 | 0.00 | 0.00 | 83 | 1001.9 |
| 20260506180110 | 80 | 230 | 0.0 | 0.0 | 0.00 | 0.00 | 0.00 | 83 | 1001.9 |
| 20260506180007 | 80 | 230 | 0.0 | 0.0 | 0.00 | 0.00 | 0.00 | 83 | 1002.0 |
| 20260506175902 | 80 | 230 | 0.0 | 0.0 | 0.00 | 0.00 | 0.00 | 83 | 1002.0 |
| 20260506175802 | 80 | 230 | 0.0 | 0.0 | 0.00 | 0.00 | 0.00 | 83 | 1002.1 |
| 20260506175702 | 80 | 230 | 0.0 | 0.0 | 0.00 | 0.00 | 0.00 | 83 | 1002.0 |
| 20260506175603 | 80 | 230 | 0.0 | 0.0 | 0.00 | 0.00 | 0.00 | 83 | 1002.1 |
| 20260506175502 | 80 | 230 | 0.0 | 0.0 | 0.00 | 0.00 | 0.00 | 83 | 1002.1 |
| 20260506175402 | 80 | 230 | 0.0 | 0.0 | 0.00 | 0.00 | 0.00 | 83 | 1002.1 |
| 20260506175306 | 80 | 230 | 0.0 | 0.0 | 0.00 | 0.00 | 0.00 | 83 | 1002.1 |
| 20260506175202 | 80 | 230 | 0.0 | 0.0 | 0.00 | 0.00 | 0.00 | 83 | 1002.2 |
| 20260506175102 | 80 | 230 | 0.0 | 0.0 | 0.00 | 0.00 | 0.00 | 83 | 1002.2 |
| 20260506175003 | 80 | 230 | 0.0 | 0.0 | 0.00 | 0.00 | 0.00 | 83 | 1002.2 |
| 20260506174904 | 80 | 230 | 0.0 | 0.0 | 0.00 | 0.00 | 0.00 | 83 | 1002.2 |
| 20260506174802 | 80 | 230 | 0.0 | 0.0 | 0.00 | 0.00 | 0.00 | 83 | 1002.1 |
| 20260506174704 | 80 | 230 | 0.0 | 0.0 | 0.00 | 0.00 | 0.00 | 83 | 1002.2 |
| 20260506174603 | 80 | 230 | 0.0 | 0.0 | 0.00 | 0.00 | 0.00 | 83 | 1002.2 |
| 20260506174503 | 80 | 230 | 0.0 | 0.0 | 0.00 | 0.00 | 0.00 | 83 | 1002.3 |
| 20260506174403 | 80 | 230 | 0.0 | 0.0 | 0.00 | 0.00 | 0.00 | 83 | 1002.4 |
| 20260506174302 | 80 | 230 | 0.0 | 0.0 | 0.00 | 0.00 | 0.00 | 83 | 1002.3 |
| 20260506174203 | 80 | 230 | 0.0 | 0.0 | 0.00 | 0.00 | 0.00 | 83 | 1002.4 |
| 20260506174102 | 80 | 230 | 0.0 | 0.0 | 0.00 | 0.00 | 0.00 | 83 | 1002.3 |
| 20260506174002 | 80 | 230 | 0.0 | 0.0 | 0.00 | 0.00 | 0.00 | 83 | 1002.3 |
| 20260506173904 | 80 | 230 | 0.0 | 0.0 | 0.00 | 0.00 | 0.00 | 83 | 1002.3 |
| 20260506173802 | 80 | 230 | 0.0 | 0.0 | 0.00 | 0.00 | 0.00 | 83 | 1002.4 |
| 20260506173703 | 80 | 230 | 0.0 | 0.0 | 0.00 | 0.00 | 0.00 | 83 | 1002.5 |
| 20260506173603 | 80 | 230 | 0.0 | 0.0 | 0.00 | 0.00 | 0.00 | 83 | 1002.5 |
| 20260506173503 | 80 | 230 | 0.0 | 0.0 | 0.00 | 0.00 | 0.00 | 83 | 1002.5 |
| 20260506173403 | 80 | 230 | 0.0 | 0.0 | 0.00 | 0.00 | 0.00 | 83 | 1002.6 |
| 20260506173304 | 80 | 230 | 0.0 | 0.0 | 0.00 | 0.00 | 0.00 | 83 | 1002.5 |
| 20260506173202 | 80 | 230 | 0.0 | 0.0 | 0.00 | 0.00 | 0.00 | 83 | 1002.5 |
| 20260506173102 | 80 | 230 | 0.0 | 0.0 | 0.00 | 0.00 | 0.00 | 83 | 1002.6 |
| 20260506173003 | 80 | 230 | 0.0 | 0.0 | 0.00 | 0.00 | 0.00 | 83 | 1002.6 |
| 20260506172902 | 80 | 230 | 0.0 | 0.0 | 0.00 | 0.00 | 0.00 | 83 | 1002.6 |
| 20260506172802 | 80 | 230 | 0.0 | 0.0 | 0.00 | 0.00 | 0.00 | 83 | 1002.6 |
| 20260506172704 | 80 | 230 | 0.0 | 0.0 | 0.00 | 0.00 | 0.00 | 83 | 1002.5 |
| 20260506172603 | 80 | 230 | 0.0 | 0.0 | 0.00 | 0.00 | 0.00 | 83 | 1002.6 |
| 20260506172503 | 80 | 230 | 0.0 | 0.0 | 0.00 | 0.00 | 0.00 | 84 | 1002.6 |
| 20260506172402 | 80 | 230 | 0.0 | 0.0 | 0.00 | 0.00 | 0.00 | 84 | 1002.7 |
| 20260506172306 | 80 | 230 | 0.0 | 0.0 | 0.00 | 0.00 | 0.00 | 83 | 1002.7 |
| 20260506172203 | 80 | 230 | 0.0 | 0.0 | 0.00 | 0.00 | 0.00 | 83 | 1002.7 |
| 20260506172105 | 80 | 230 | 0.0 | 0.0 | 0.00 | 0.00 | 0.00 | 84 | 1002.7 |
| 20260506172002 | 80 | 230 | 0.0 | 0.0 | 0.00 | 0.00 | 0.00 | 84 | 1002.6 |
| 20260506171903 | 80 | 230 | 0.0 | 0.0 | 0.00 | 0.00 | 0.00 | 84 | 1002.6 |
| 20260506171802 | 80 | 230 | 0.0 | 0.0 | 0.00 | 0.00 | 0.00 | 84 | 1002.7 |
| 20260506171702 | 80 | 230 | 0.0 | 0.0 | 0.00 | 0.00 | 0.00 | 83 | 1002.6 |
| 20260506171602 | 80 | 230 | 0.0 | 0.0 | 0.00 | 0.00 | 0.00 | 83 | 1002.6 |
| 20260506171502 | 80 | 230 | 0.0 | 0.0 | 0.00 | 0.00 | 0.00 | 83 | 1002.6 |
| 20260506171403 | 80 | 230 | 0.0 | 0.0 | 0.00 | 0.00 | 0.00 | 83 | 1002.7 |
| 20260506171304 | 80 | 230 | 0.0 | 0.0 | 0.00 | 0.00 | 0.00 | 83 | 1002.7 |
| 20260506171203 | 80 | 230 | 0.0 | 0.0 | 0.00 | 0.00 | 0.00 | 83 | 1002.6 |
| 20260506171102 | 80 | 230 | 0.0 | 0.0 | 0.00 | 0.00 | 0.00 | 83 | 1002.5 |
| 20260506171003 | 80 | 230 | 0.0 | 0.0 | 0.00 | 0.00 | 0.00 | 83 | 1002.6 |
| 20260506170902 | 80 | 230 | 0.0 | 0.0 | 0.00 | 0.00 | 0.00 | 83 | 1002.6 |
| 20260506170802 | 80 | 230 | 0.0 | 0.0 | 0.00 | 0.00 | 0.00 | 83 | 1002.6 |
| 20260506170703 | 80 | 230 | 0.0 | 0.0 | 0.00 | 0.00 | 0.00 | 83 | 1002.6 |
| 20260506170603 | 80 | 230 | 0.0 | 0.0 | 0.00 | 0.00 | 0.00 | 83 | 1002.6 |
| 20260506170501 | 80 | 230 | 0.0 | 0.0 | 0.00 | 0.00 | 0.00 | 83 | 1002.6 |
| 20260506170402 | 80 | 230 | 0.0 | 0.0 | 0.00 | 0.00 | 0.00 | 83 | 1002.6 |
| 20260506170301 | 80 | 230 | 0.0 | 0.0 | 0.00 | 0.00 | 0.00 | 84 | 1002.7 |
| 20260506170202 | 80 | 230 | 0.0 | 0.0 | 0.00 | 0.00 | 0.00 | 84 | 1002.7 |
| 20260506170103 | 80 | 230 | 0.0 | 0.0 | 0.00 | 0.00 | 0.00 | 84 | 1002.6 |
| 20260506170002 | 80 | 230 | 0.0 | 0.0 | 0.00 | 0.00 | 0.00 | 84 | 1002.7 |
| 20260506165902 | 80 | 230 | 0.0 | 0.0 | 0.00 | 0.00 | 0.00 | 84 | 1002.7 |
| 20260506165803 | 80 | 230 | 0.0 | 0.0 | 0.00 | 0.00 | 0.00 | 83 | 1002.8 |
| 20260506165702 | 80 | 230 | 0.0 | 0.0 | 0.00 | 0.00 | 0.00 | 83 | 1002.7 |
| 20260506165602 | 80 | 230 | 0.0 | 0.0 | 0.00 | 0.00 | 0.00 | 83 | 1002.8 |
| 20260506165503 | 80 | 230 | 0.0 | 0.0 | 0.00 | 0.00 | 0.00 | 83 | 1002.8 |
| 20260506165404 | 80 | 230 | 0.0 | 0.0 | 0.00 | 0.00 | 0.00 | 83 | 1002.7 |
| 20260506165257 | 80 | 230 | 0.0 | 0.0 | 0.00 | 0.00 | 0.00 | 83 | 1002.7 |
| 20260506165156 | 80 | 230 | 0.0 | 0.0 | 0.00 | 0.00 | 0.00 | 83 | 1002.7 |
| 20260506165052 | 80 | 230 | 0.0 | 0.0 | 0.00 | 0.00 | 0.00 | 83 | 1002.6 |
| 20260506164952 | 80 | 230 | 0.0 | 0.0 | 0.00 | 0.00 | 0.00 | 83 | 1002.7 |
| 20260506164849 | 80 | 230 | 0.0 | 0.0 | 0.00 | 0.00 | 0.00 | 83 | 1002.7 |
| 20260506164745 | 80 | 230 | 0.0 | 0.0 | 0.00 | 0.00 | 0.00 | 83 | 1002.6 |
| 20260506164646 | 80 | 230 | 0.0 | 0.0 | 0.00 | 0.00 | 0.00 | 83 | 1002.7 |
| 20260506164544 | 80 | 230 | 0.0 | 0.0 | 0.00 | 0.00 | 0.00 | 83 | 1002.7 |
| 20260506164441 | 80 | 230 | 0.0 | 0.0 | 0.00 | 0.00 | 0.00 | 83 | 1002.7 |
| 20260506164331 | 80 | 230 | 0.0 | 0.0 | 0.00 | 0.00 | 0.00 | 83 | 1002.7 |
| 20260506164230 | 80 | 230 | 0.0 | 0.0 | 0.00 | 0.00 | 0.00 | 83 | 1002.8 |
| 20260506164131 | 80 | 230 | 0.0 | 0.0 | 0.00 | 0.00 | 0.00 | 83 | 1002.7 |
| 20260506164032 | 80 | 230 | 0.0 | 0.0 | 0.00 | 0.00 | 0.00 | 83 | 1002.7 |
| 20260506163931 | 80 | 230 | 0.0 | 0.0 | 0.00 | 0.00 | 0.00 | 83 | 1002.8 |
| 20260506163830 | 80 | 230 | 0.0 | 0.0 | 0.00 | 0.00 | 0.00 | 83 | 1002.8 |
| 20260506163728 | 80 | 230 | 0.0 | 0.0 | 0.00 | 0.00 | 0.00 | 83 | 1002.7 |
| 20260506163629 | 80 | 230 | 0.0 | 0.0 | 0.00 | 0.00 | 0.00 | 83 | 1002.6 |
| 20260506163526 | 80 | 230 | 0.0 | 0.0 | 0.00 | 0.00 | 0.00 | 83 | 1002.5 |
| 20260506163417 | 80 | 230 | 0.0 | 0.0 | 0.00 | 0.00 | 0.00 | 83 | 1002.5 |
| 20260506163314 | 80 | 230 | 0.0 | 0.0 | 0.00 | 0.00 | 0.00 | 83 | 1002.5 |
| 20260506163209 | 80 | 230 | 0.0 | 0.0 | 0.00 | 0.00 | 0.00 | 82 | 1002.5 |
| 20260506163104 | 80 | 230 | 0.0 | 0.0 | 0.00 | 0.00 | 0.00 | 83 | 1002.6 |
| 20260506163002 | 80 | 230 | 0.0 | 0.0 | 0.00 | 0.00 | 0.00 | 83 | 1002.5 |
| 20260506162903 | 80 | 230 | 0.0 | 0.0 | 0.00 | 0.00 | 0.00 | 83 | 1002.5 |
| 20260506162803 | 80 | 230 | 0.0 | 0.0 | 0.00 | 0.00 | 0.00 | 83 | 1002.5 |
| 20260506162704 | 80 | 230 | 0.0 | 0.0 | 0.00 | 0.00 | 0.00 | 83 | 1002.5 |
| 20260506162602 | 80 | 230 | 0.0 | 0.0 | 0.00 | 0.00 | 0.00 | 83 | 1002.6 |
| 20260506162502 | 80 | 230 | 0.0 | 0.0 | 0.00 | 0.00 | 0.00 | 83 | 1002.6 |
| 20260506162402 | 80 | 230 | 0.0 | 0.0 | 0.00 | 0.00 | 0.00 | 83 | 1002.5 |
| 20260506162306 | 80 | 230 | 0.0 | 0.0 | 0.00 | 0.00 | 0.00 | 83 | 1002.5 |
| 20260506162204 | 80 | 230 | 0.0 | 0.0 | 0.00 | 0.00 | 0.00 | 84 | 1002.4 |
| 20260506162104 | 80 | 230 | 0.0 | 0.0 | 0.00 | 0.00 | 0.00 | 84 | 1002.5 |
| 20260506162004 | 80 | 230 | 0.0 | 0.0 | 0.00 | 0.00 | 0.00 | 84 | 1002.4 |
| 20260506161902 | 80 | 230 | 0.0 | 0.0 | 0.00 | 0.00 | 0.00 | 84 | 1002.4 |
| 20260506161804 | 80 | 230 | 0.0 | 0.0 | 0.00 | 0.00 | 0.00 | 84 | 1002.4 |
| 20260506161702 | 80 | 230 | 0.0 | 0.0 | 0.00 | 0.00 | 0.00 | 84 | 1002.4 |
| 20260506161602 | 80 | 230 | 0.0 | 0.0 | 0.00 | 0.00 | 0.00 | 84 | 1002.3 |
| 20260506161457 | 80 | 230 | 0.0 | 0.0 | 0.00 | 0.00 | 0.00 | 84 | 1002.3 |
| 20260506161356 | 80 | 230 | 0.0 | 0.0 | 0.00 | 0.00 | 0.00 | 84 | 1002.3 |
| 20260506161254 | 80 | 230 | 0.0 | 0.0 | 0.00 | 0.00 | 0.00 | 84 | 1002.3 |
| 20260506161144 | 80 | 230 | 0.0 | 0.0 | 0.00 | 0.00 | 0.00 | 84 | 1002.3 |
| 20260506161043 | 80 | 230 | 0.0 | 0.0 | 0.00 | 0.00 | 0.00 | 84 | 1002.3 |
| 20260506160942 | 80 | 230 | 0.0 | 0.0 | 0.00 | 0.00 | 0.00 | 84 | 1002.2 |
| 20260506160843 | 80 | 230 | 0.0 | 0.0 | 0.00 | 0.00 | 0.00 | 84 | 1002.3 |
| 20260506160744 | 80 | 230 | 0.0 | 0.0 | 0.00 | 0.00 | 0.00 | 84 | 1002.3 |
| 20260506160644 | 80 | 230 | 0.0 | 0.0 | 0.00 | 0.00 | 0.00 | 84 | 1002.1 |
| 20260506160543 | 80 | 230 | 0.0 | 0.0 | 0.00 | 0.00 | 0.00 | 84 | 1002.2 |
| 20260506160442 | 80 | 230 | 0.0 | 0.0 | 0.00 | 0.00 | 0.00 | 84 | 1002.2 |
| 20260506160343 | 80 | 230 | 0.0 | 0.0 | 0.00 | 0.00 | 0.00 | 84 | 1002.2 |
| 20260506160242 | 80 | 230 | 0.0 | 0.0 | 0.00 | 0.00 | 0.00 | 84 | 1002.2 |
| 20260506160142 | 80 | 230 | 0.0 | 0.0 | 0.00 | 0.00 | 0.00 | 84 | 1002.2 |
| 20260506160042 | 80 | 230 | 0.0 | 0.0 | 0.00 | 0.00 | 0.00 | 84 | 1002.2 |
| 20260506155943 | 80 | 230 | 0.0 | 0.0 | 0.00 | 0.00 | 0.00 | 84 | 1002.3 |
| 20260506155844 | 80 | 230 | 0.0 | 0.0 | 0.00 | 0.00 | 0.00 | 84 | 1002.2 |
| 20260506155744 | 80 | 230 | 0.0 | 0.0 | 0.00 | 0.00 | 0.00 | 84 | 1002.2 |
| 20260506155643 | 80 | 230 | 0.0 | 0.0 | 0.00 | 0.00 | 0.00 | 84 | 1002.2 |
| 20260506155544 | 80 | 230 | 0.0 | 0.0 | 0.00 | 0.00 | 0.00 | 84 | 1002.1 |
| 20260506155444 | 80 | 230 | 0.0 | 0.0 | 0.00 | 0.00 | 0.00 | 84 | 1002.1 |
| 20260506155342 | 80 | 230 | 0.0 | 0.0 | 0.00 | 0.00 | 0.00 | 84 | 1002.0 |
| 20260506155243 | 80 | 230 | 0.0 | 0.0 | 0.00 | 0.00 | 0.00 | 84 | 1002.0 |
| 20260506155143 | 80 | 230 | 0.0 | 0.0 | 0.00 | 0.00 | 0.00 | 84 | 1002.0 |
| 20260506155043 | 80 | 230 | 0.0 | 0.0 | 0.00 | 0.00 | 0.00 | 84 | 1002.0 |
| 20260506154942 | 80 | 230 | 0.0 | 0.0 | 0.00 | 0.00 | 0.00 | 84 | 1001.9 |
| 20260506154842 | 80 | 230 | 0.0 | 0.0 | 0.00 | 0.00 | 0.00 | 84 | 1001.9 |
| 20260506154743 | 80 | 230 | 0.0 | 0.0 | 0.00 | 0.00 | 0.00 | 84 | 1001.9 |
| 20260506154644 | 80 | 230 | 0.0 | 0.0 | 0.00 | 0.00 | 0.00 | 84 | 1001.9 |
| 20260506154543 | 80 | 230 | 0.0 | 0.0 | 0.00 | 0.00 | 0.00 | 84 | 1001.9 |
| 20260506154443 | 80 | 230 | 0.0 | 0.0 | 0.00 | 0.00 | 0.00 | 84 | 1001.9 |
| 20260506154344 | 79 | 230 | 0.0 | 0.0 | 0.00 | 0.00 | 0.00 | 84 | 1001.9 |
| 20260506154243 | 79 | 230 | 0.0 | 0.0 | 0.00 | 0.00 | 0.00 | 84 | 1001.9 |
| 20260506154142 | 79 | 230 | 0.0 | 0.0 | 0.00 | 0.00 | 0.00 | 84 | 1001.9 |
| 20260506154042 | 79 | 230 | 0.0 | 0.0 | 0.00 | 0.00 | 0.00 | 85 | 1001.8 |
| 20260506153944 | 79 | 230 | 0.0 | 0.0 | 0.00 | 0.00 | 0.00 | 85 | 1001.8 |
| 20260506153844 | 79 | 230 | 0.0 | 0.0 | 0.00 | 0.00 | 0.00 | 85 | 1002.0 |
| 20260506153743 | 79 | 230 | 0.0 | 0.0 | 0.00 | 0.00 | 0.00 | 85 | 1001.9 |
| 20260506153643 | 79 | 230 | 0.0 | 0.0 | 0.00 | 0.00 | 0.00 | 85 | 1002.0 |
| 20260506153543 | 79 | 230 | 0.0 | 0.0 | 0.00 | 0.00 | 0.00 | 86 | 1002.0 |
| 20260506153442 | 79 | 230 | 0.0 | 0.0 | 0.00 | 0.00 | 0.00 | 86 | 1002.0 |
| 20260506153343 | 79 | 230 | 0.0 | 0.0 | 0.00 | 0.00 | 0.00 | 85 | 1002.0 |
| 20260506153243 | 79 | 230 | 0.0 | 0.0 | 0.00 | 0.00 | 0.00 | 86 | 1002.0 |
| 20260506153142 | 79 | 230 | 0.0 | 0.0 | 0.00 | 0.00 | 0.00 | 86 | 1001.9 |
| 20260506153043 | 79 | 230 | 0.0 | 0.0 | 0.00 | 0.00 | 0.00 | 86 | 1001.9 |
| 20260506152944 | 79 | 230 | 0.0 | 0.0 | 0.00 | 0.00 | 0.00 | 86 | 1001.9 |
| 20260506152842 | 79 | 230 | 0.0 | 0.0 | 0.00 | 0.00 | 0.00 | 86 | 1001.9 |
| 20260506152743 | 78 | 230 | 0.0 | 0.0 | 0.00 | 0.00 | 0.00 | 87 | 1001.9 |
| 20260506152642 | 78 | 228 | 0.0 | 0.0 | 0.00 | 0.00 | 0.00 | 87 | 1001.9 |
| 20260506152542 | 78 | 228 | 0.0 | 0.0 | 0.00 | 0.00 | 0.00 | 87 | 1001.9 |
| 20260506152443 | 78 | 228 | 0.0 | 0.0 | 0.00 | 0.00 | 0.00 | 87 | 1001.9 |
| 20260506152342 | 78 | 228 | 0.0 | 0.0 | 0.00 | 0.00 | 0.00 | 88 | 1001.9 |
| 20260506152242 | 78 | 228 | 0.0 | 0.0 | 0.00 | 0.00 | 0.00 | 88 | 1001.9 |
| 20260506152143 | 78 | 228 | 0.0 | 0.0 | 0.00 | 0.00 | 0.00 | 88 | 1002.0 |
| 20260506152041 | 78 | 228 | 0.0 | 0.0 | 0.00 | 0.00 | 0.00 | 88 | 1002.0 |
| 20260506151942 | 78 | 228 | 0.0 | 0.0 | 0.00 | 0.00 | 0.00 | 88 | 1002.0 |
| 20260506151843 | 78 | 228 | 0.0 | 0.0 | 0.00 | 0.00 | 0.00 | 88 | 1002.1 |
| 20260506151742 | 78 | 228 | 0.0 | 0.0 | 0.00 | 0.00 | 0.00 | 88 | 1002.1 |
| 20260506151643 | 78 | 228 | 0.0 | 0.0 | 0.00 | 0.00 | 0.00 | 88 | 1002.1 |
| 20260506151543 | 78 | 228 | 0.0 | 0.0 | 0.00 | 0.00 | 0.00 | 88 | 1002.1 |
| 20260506151441 | 78 | 228 | 0.0 | 0.0 | 0.00 | 0.00 | 0.00 | 88 | 1002.1 |
| 20260506151342 | 78 | 228 | 0.0 | 0.0 | 0.00 | 0.00 | 0.00 | 88 | 1002.0 |
| 20260506151243 | 78 | 228 | 0.0 | 0.0 | 0.00 | 0.00 | 0.00 | 88 | 1002.1 |
| 20260506151143 | 78 | 228 | 0.0 | 0.0 | 0.00 | 0.00 | 0.00 | 88 | 1002.1 |
| 20260506151043 | 78 | 228 | 0.0 | 0.0 | 0.00 | 0.00 | 0.00 | 88 | 1002.1 |
| 20260506150941 | 78 | 228 | 0.0 | 0.0 | 0.00 | 0.00 | 0.00 | 88 | 1002.2 |
| 20260506150842 | 78 | 228 | 0.0 | 0.0 | 0.00 | 0.00 | 0.00 | 88 | 1002.2 |
| 20260506150743 | 78 | 228 | 0.0 | 0.0 | 0.00 | 0.00 | 0.00 | 88 | 1002.1 |
| 20260506150641 | 78 | 228 | 0.0 | 0.0 | 0.00 | 0.00 | 0.00 | 88 | 1002.1 |
| 20260506150543 | 78 | 228 | 0.0 | 0.0 | 0.00 | 0.00 | 0.00 | 88 | 1002.1 |
| 20260506150442 | 78 | 228 | 0.0 | 0.0 | 0.00 | 0.00 | 0.00 | 88 | 1002.0 |
| 20260506150341 | 78 | 228 | 0.0 | 0.0 | 0.00 | 0.00 | 0.00 | 88 | 1002.0 |
| 20260506150242 | 78 | 228 | 0.0 | 0.0 | 0.00 | 0.00 | 0.00 | 88 | 1002.1 |
| 20260506150141 | 78 | 228 | 0.0 | 0.0 | 0.00 | 0.00 | 0.00 | 88 | 1002.0 |
| 20260506150042 | 78 | 228 | 0.0 | 0.0 | 0.00 | 0.00 | 0.00 | 88 | 1002.0 |
| 20260506145941 | 78 | 228 | 0.0 | 0.0 | 0.00 | 0.00 | 0.00 | 89 | 1002.0 |
| 20260506145843 | 78 | 228 | 0.0 | 0.0 | 0.00 | 0.00 | 0.00 | 89 | 1001.9 |
| 20260506145742 | 78 | 227 | 0.0 | 0.0 | 0.00 | 0.00 | 0.00 | 89 | 1001.8 |
| 20260506145642 | 78 | 227 | 0.0 | 0.0 | 0.00 | 0.00 | 0.00 | 89 | 1001.8 |
| 20260506145542 | 78 | 227 | 0.0 | 0.0 | 0.00 | 0.00 | 0.00 | 89 | 1001.7 |
| 20260506145441 | 78 | 227 | 0.0 | 0.0 | 0.00 | 0.00 | 0.00 | 88 | 1001.7 |
| 20260506145341 | 77 | 227 | 0.0 | 0.0 | 0.00 | 0.00 | 0.00 | 88 | 1001.6 |
| 20260506145241 | 77 | 227 | 0.0 | 0.0 | 0.00 | 0.00 | 0.00 | 88 | 1001.5 |
| 20260506145143 | 77 | 227 | 0.0 | 0.0 | 0.00 | 0.00 | 0.00 | 88 | 1001.6 |
| 20260506145042 | 77 | 227 | 0.0 | 0.0 | 0.00 | 0.00 | 0.00 | 88 | 1001.5 |
| 20260506144942 | 77 | 227 | 0.0 | 0.0 | 0.00 | 0.00 | 0.00 | 88 | 1001.5 |
| 20260506144842 | 77 | 227 | 0.0 | 0.0 | 0.00 | 0.00 | 0.00 | 88 | 1001.5 |
| 20260506144741 | 77 | 227 | 0.0 | 0.0 | 0.00 | 0.00 | 0.00 | 88 | 1001.5 |
| 20260506144642 | 77 | 227 | 0.0 | 0.0 | 0.00 | 0.00 | 0.00 | 89 | 1001.6 |
| 20260506144536 | 77 | 227 | 0.0 | 0.0 | 0.00 | 0.00 | 0.00 | 89 | 1001.6 |
| 20260506144437 | 77 | 227 | 0.0 | 0.0 | 0.00 | 0.00 | 0.00 | 89 | 1001.6 |
| 20260506144330 | 77 | 227 | 0.0 | 0.0 | 0.00 | 0.00 | 0.00 | 89 | 1001.6 |
| 20260506144230 | 77 | 227 | 0.0 | 0.0 | 0.00 | 0.00 | 0.00 | 89 | 1001.6 |
| 20260506144131 | 77 | 227 | 0.0 | 0.0 | 0.00 | 0.00 | 0.00 | 89 | 1001.6 |
| 20260506144032 | 77 | 227 | 0.0 | 0.0 | 0.00 | 0.00 | 0.00 | 89 | 1001.5 |
| 20260506143930 | 77 | 227 | 0.0 | 0.0 | 0.00 | 0.00 | 0.00 | 89 | 1001.5 |
| 20260506143831 | 77 | 227 | 0.0 | 0.0 | 0.00 | 0.00 | 0.00 | 89 | 1001.5 |
| 20260506143731 | 77 | 227 | 0.0 | 0.0 | 0.00 | 0.00 | 0.00 | 89 | 1001.5 |
| 20260506143631 | 77 | 227 | 0.0 | 0.0 | 0.00 | 0.00 | 0.00 | 89 | 1001.5 |
| 20260506143531 | 77 | 227 | 0.0 | 0.0 | 0.00 | 0.00 | 0.00 | 89 | 1001.5 |
| 20260506143432 | 77 | 227 | 0.0 | 0.0 | 0.00 | 0.00 | 0.00 | 89 | 1001.5 |
| 20260506143332 | 77 | 227 | 0.0 | 0.0 | 0.00 | 0.00 | 0.00 | 89 | 1001.5 |
| 20260506143232 | 77 | 227 | 0.0 | 0.0 | 0.00 | 0.00 | 0.00 | 89 | 1001.5 |
| 20260506143131 | 77 | 227 | 0.0 | 0.0 | 0.00 | 0.00 | 0.00 | 89 | 1001.4 |
| 20260506143030 | 77 | 227 | 0.0 | 0.0 | 0.00 | 0.00 | 0.00 | 89 | 1001.5 |
| 20260506142932 | 77 | 227 | 0.0 | 0.0 | 0.00 | 0.00 | 0.00 | 89 | 1001.4 |
| 20260506142832 | 77 | 227 | 0.0 | 0.0 | 0.00 | 0.00 | 0.00 | 89 | 1001.3 |
| 20260506142731 | 77 | 227 | 0.0 | 0.0 | 0.00 | 0.00 | 0.00 | 89 | 1001.3 |
| 20260506142632 | 77 | 227 | 0.0 | 0.0 | 0.00 | 0.00 | 0.00 | 89 | 1001.3 |
| 20260506142532 | 77 | 227 | 0.0 | 0.0 | 0.00 | 0.00 | 0.00 | 89 | 1001.3 |
| 20260506142431 | 77 | 227 | 0.0 | 0.0 | 0.00 | 0.00 | 0.00 | 89 | 1001.3 |
| 20260506142332 | 77 | 227 | 0.0 | 0.0 | 0.00 | 0.00 | 0.00 | 89 | 1001.3 |
| 20260506142232 | 77 | 10 | 0.0 | 0.0 | 0.00 | 0.00 | 0.00 | 89 | 1001.3 |
| 20260506142130 | 77 | 10 | 0.0 | 0.0 | 0.00 | 0.00 | 0.00 | 89 | 1001.3 |
| 20260506142032 | 77 | 10 | 0.0 | 0.0 | 0.00 | 0.00 | 0.00 | 89 | 1001.3 |
| 20260506141932 | 77 | 10 | 0.0 | 0.0 | 0.00 | 0.00 | 0.00 | 89 | 1001.3 |
| 20260506141832 | 76 | 10 | 0.0 | 0.0 | 0.00 | 0.00 | 0.00 | 89 | 1001.3 |
| 20260506141731 | 76 | 10 | 0.0 | 0.0 | 0.00 | 0.00 | 0.00 | 89 | 1001.3 |
| 20260506141631 | 76 | 10 | 0.0 | 0.0 | 0.00 | 0.00 | 0.00 | 89 | 1001.3 |
| 20260506141531 | 76 | 10 | 0.0 | 0.0 | 0.00 | 0.00 | 0.00 | 89 | 1001.3 |
| 20260506141432 | 76 | 10 | 0.0 | 0.0 | 0.00 | 0.00 | 0.00 | 89 | 1001.2 |
| 20260506141331 | 76 | 10 | 0.0 | 0.0 | 0.00 | 0.00 | 0.00 | 89 | 1001.3 |
| 20260506141233 | 76 | 10 | 0.0 | 0.0 | 0.00 | 0.00 | 0.00 | 89 | 1001.3 |
| 20260506141132 | 76 | 10 | 0.0 | 0.0 | 0.00 | 0.00 | 0.00 | 89 | 1001.3 |
| 20260506141031 | 76 | 10 | 0.0 | 0.0 | 0.00 | 0.00 | 0.00 | 89 | 1001.2 |
| 20260506140931 | 76 | 10 | 0.0 | 0.0 | 0.00 | 0.00 | 0.00 | 89 | 1001.3 |
| 20260506140833 | 76 | 10 | 0.0 | 0.0 | 0.00 | 0.00 | 0.00 | 89 | 1001.3 |
| 20260506140729 | 76 | 10 | 0.0 | 0.0 | 0.00 | 0.00 | 0.00 | 89 | 1001.3 |
| 20260506140619 | 76 | 10 | 0.0 | 0.0 | 0.00 | 0.00 | 0.00 | 89 | 1001.3 |
| 20260506140510 | 76 | 10 | 0.0 | 0.0 | 0.00 | 0.00 | 0.00 | 89 | 1001.3 |
| 20260506140409 | 76 | 10 | 0.0 | 0.0 | 0.00 | 0.00 | 0.00 | 89 | 1001.3 |
| 20260506140308 | 76 | 10 | 0.0 | 0.0 | 0.00 | 0.00 | 0.00 | 89 | 1001.3 |
| 20260506140203 | 76 | 10 | 0.0 | 0.0 | 0.00 | 0.00 | 0.00 | 89 | 1001.3 |
| 20260506140105 | 76 | 10 | 0.0 | 0.0 | 0.00 | 0.00 | 0.00 | 89 | 1001.3 |
| 20260506140003 | 76 | 10 | 0.0 | 0.0 | 0.00 | 0.00 | 0.00 | 89 | 1001.3 |
| 20260506135904 | 76 | 10 | 0.0 | 0.0 | 0.00 | 0.00 | 0.00 | 89 | 1001.4 |
| 20260506135803 | 76 | 10 | 0.0 | 0.0 | 0.00 | 0.00 | 0.00 | 89 | 1001.3 |
| 20260506135703 | 76 | 10 | 0.0 | 0.0 | 0.00 | 0.00 | 0.00 | 89 | 1001.4 |
| 20260506135602 | 76 | 10 | 0.0 | 0.0 | 0.00 | 0.00 | 0.00 | 89 | 1001.4 |
| 20260506135503 | 76 | 10 | 0.0 | 0.0 | 0.00 | 0.00 | 0.00 | 89 | 1001.4 |
| 20260506135402 | 76 | 10 | 0.0 | 0.0 | 0.00 | 0.00 | 0.00 | 89 | 1001.4 |
| 20260506135306 | 76 | 10 | 0.0 | 0.0 | 0.00 | 0.00 | 0.00 | 89 | 1001.4 |
| 20260506135202 | 76 | 10 | 0.0 | 0.0 | 0.00 | 0.00 | 0.00 | 89 | 1001.4 |
| 20260506135102 | 76 | 10 | 0.0 | 0.0 | 0.00 | 0.00 | 0.00 | 89 | 1001.4 |
| 20260506135004 | 76 | 10 | 0.0 | 0.0 | 0.00 | 0.00 | 0.00 | 89 | 1001.4 |
| 20260506134902 | 76 | 10 | 0.0 | 0.0 | 0.00 | 0.00 | 0.00 | 89 | 1001.3 |
| 20260506134803 | 76 | 10 | 0.0 | 0.0 | 0.00 | 0.00 | 0.00 | 89 | 1001.5 |
| 20260506134703 | 76 | 10 | 0.0 | 0.0 | 0.00 | 0.00 | 0.00 | 88 | 1001.4 |
| 20260506134602 | 76 | 10 | 0.0 | 0.0 | 0.00 | 0.00 | 0.00 | 88 | 1001.5 |
| 20260506134503 | 76 | 10 | 0.0 | 0.0 | 0.00 | 0.00 | 0.00 | 88 | 1001.4 |
| 20260506134403 | 76 | 24 | 0.0 | 0.0 | 0.00 | 0.00 | 0.00 | 88 | 1001.4 |
| 20260506134303 | 76 | 24 | 0.0 | 1.0 | 0.00 | 0.00 | 0.00 | 88 | 1001.5 |
| 20260506134202 | 76 | 24 | 0.0 | 1.0 | 0.00 | 0.00 | 0.00 | 88 | 1001.6 |
| 20260506134104 | 76 | 24 | 0.0 | 1.0 | 0.00 | 0.00 | 0.00 | 88 | 1001.5 |
| 20260506134002 | 76 | 24 | 0.0 | 1.0 | 0.00 | 0.00 | 0.00 | 88 | 1001.6 |
| 20260506133901 | 75 | 24 | 0.0 | 1.0 | 0.00 | 0.00 | 0.00 | 88 | 1001.6 |
| 20260506133802 | 75 | 24 | 0.0 | 1.0 | 0.00 | 0.00 | 0.00 | 88 | 1001.6 |
| 20260506133702 | 75 | 24 | 0.0 | 1.0 | 0.00 | 0.00 | 0.00 | 88 | 1001.6 |
| 20260506133604 | 75 | 24 | 0.0 | 1.0 | 0.00 | 0.00 | 0.00 | 88 | 1001.6 |
| 20260506133504 | 75 | 24 | 0.0 | 1.0 | 0.00 | 0.00 | 0.00 | 88 | 1001.5 |
| 20260506133402 | 75 | 24 | 0.0 | 1.0 | 0.00 | 0.00 | 0.00 | 88 | 1001.5 |
| 20260506133302 | 75 | 24 | 0.0 | 1.0 | 0.00 | 0.00 | 0.00 | 88 | 1001.5 |
| 20260506133202 | 75 | 259 | 0.0 | 0.0 | 0.00 | 0.00 | 0.00 | 88 | 1001.5 |
| 20260506133103 | 75 | 259 | 0.0 | 0.0 | 0.00 | 0.00 | 0.00 | 88 | 1001.5 |
| 20260506133002 | 75 | 259 | 0.0 | 0.0 | 0.00 | 0.00 | 0.00 | 88 | 1001.5 |
| 20260506132902 | 75 | 259 | 0.0 | 0.0 | 0.00 | 0.00 | 0.00 | 88 | 1001.5 |
| 20260506132803 | 75 | 259 | 0.0 | 0.0 | 0.00 | 0.00 | 0.00 | 88 | 1001.5 |
| 20260506132703 | 75 | 259 | 0.0 | 0.0 | 0.00 | 0.00 | 0.00 | 88 | 1001.5 |
| 20260506132602 | 75 | 259 | 0.0 | 0.0 | 0.00 | 0.00 | 0.00 | 88 | 1001.6 |
| 20260506132503 | 75 | 259 | 0.0 | 0.0 | 0.00 | 0.00 | 0.00 | 88 | 1001.6 |
| 20260506132403 | 75 | 259 | 0.0 | 0.0 | 0.00 | 0.00 | 0.00 | 88 | 1001.6 |
| 20260506132305 | 75 | 259 | 0.0 | 0.0 | 0.00 | 0.00 | 0.00 | 88 | 1001.7 |
| 20260506132203 | 75 | 259 | 0.0 | 0.0 | 0.00 | 0.00 | 0.00 | 88 | 1001.7 |
| 20260506132102 | 75 | 259 | 0.0 | 0.0 | 0.00 | 0.00 | 0.00 | 88 | 1001.7 |
| 20260506132002 | 75 | 259 | 0.0 | 0.0 | 0.00 | 0.00 | 0.00 | 88 | 1001.7 |
| 20260506131903 | 75 | 259 | 0.0 | 0.0 | 0.00 | 0.00 | 0.00 | 88 | 1001.6 |
| 20260506131802 | 75 | 259 | 0.0 | 0.0 | 0.00 | 0.00 | 0.00 | 88 | 1001.7 |
| 20260506131703 | 75 | 259 | 0.0 | 0.0 | 0.00 | 0.00 | 0.00 | 88 | 1001.6 |
| 20260506131602 | 75 | 259 | 0.0 | 0.0 | 0.00 | 0.00 | 0.00 | 88 | 1001.6 |
| 20260506131503 | 75 | 259 | 0.0 | 0.0 | 0.00 | 0.00 | 0.00 | 88 | 1001.6 |
| 20260506131402 | 75 | 259 | 0.0 | 0.0 | 0.00 | 0.00 | 0.00 | 88 | 1001.5 |
| 20260506131302 | 75 | 259 | 0.0 | 0.0 | 0.00 | 0.00 | 0.00 | 88 | 1001.5 |
| 20260506131202 | 75 | 259 | 0.0 | 0.0 | 0.00 | 0.00 | 0.00 | 88 | 1001.6 |
| 20260506131102 | 75 | 259 | 0.0 | 0.0 | 0.00 | 0.00 | 0.00 | 88 | 1001.5 |
| 20260506131002 | 75 | 259 | 0.0 | 0.0 | 0.00 | 0.00 | 0.00 | 88 | 1001.5 |
| 20260506130902 | 75 | 259 | 0.0 | 0.0 | 0.00 | 0.00 | 0.00 | 88 | 1001.5 |
| 20260506130804 | 75 | 259 | 0.0 | 1.0 | 0.00 | 0.00 | 0.00 | 88 | 1001.6 |
| 20260506130702 | 75 | 259 | 0.0 | 1.0 | 0.00 | 0.00 | 0.00 | 88 | 1001.5 |
| 20260506130602 | 75 | 259 | 0.0 | 1.0 | 0.00 | 0.00 | 0.00 | 88 | 1001.5 |
| 20260506130502 | 75 | 259 | 0.0 | 1.0 | 0.00 | 0.00 | 0.00 | 88 | 1001.5 |
| 20260506130402 | 75 | 259 | 0.0 | 1.0 | 0.00 | 0.00 | 0.00 | 88 | 1001.6 |
| 20260506130302 | 75 | 259 | 0.0 | 1.0 | 0.00 | 0.00 | 0.00 | 88 | 1001.5 |
| 20260506130203 | 75 | 259 | 0.0 | 1.0 | 0.00 | 0.00 | 0.00 | 88 | 1001.5 |
| 20260506130104 | 75 | 259 | 0.0 | 1.0 | 0.00 | 0.00 | 0.00 | 88 | 1001.6 |
| 20260506130003 | 75 | 259 | 0.0 | 1.0 | 0.00 | 0.00 | 0.00 | 88 | 1001.6 |
| 20260506125904 | 75 | 259 | 0.0 | 1.0 | 0.00 | 0.00 | 0.00 | 88 | 1001.6 |
| 20260506125805 | 75 | 259 | 0.0 | 1.0 | 0.00 | 0.00 | 0.00 | 88 | 1001.6 |
| 20260506125705 | 75 | 259 | 0.0 | 1.0 | 0.00 | 0.00 | 0.00 | 88 | 1001.5 |
| 20260506125604 | 75 | 259 | 0.0 | 1.0 | 0.00 | 0.00 | 0.00 | 88 | 1001.5 |
| 20260506125502 | 75 | 259 | 0.0 | 1.0 | 0.00 | 0.00 | 0.00 | 88 | 1001.5 |
| 20260506125405 | 75 | 259 | 0.0 | 1.0 | 0.00 | 0.00 | 0.00 | 88 | 1001.5 |
| 20260506125305 | 74 | 259 | 0.0 | 0.0 | 0.00 | 0.00 | 0.00 | 88 | 1001.5 |
| 20260506125204 | 75 | 259 | 0.0 | 0.0 | 0.00 | 0.00 | 0.00 | 88 | 1001.5 |
| 20260506125102 | 74 | 259 | 0.0 | 0.0 | 0.00 | 0.00 | 0.00 | 88 | 1001.4 |
| 20260506125004 | 74 | 259 | 0.0 | 0.0 | 0.00 | 0.00 | 0.00 | 88 | 1001.4 |
| 20260506124902 | 74 | 259 | 0.0 | 0.0 | 0.00 | 0.00 | 0.00 | 88 | 1001.5 |
| 20260506124805 | 74 | 259 | 0.0 | 0.0 | 0.00 | 0.00 | 0.00 | 88 | 1001.4 |
| 20260506124704 | 74 | 259 | 0.0 | 0.0 | 0.00 | 0.00 | 0.00 | 88 | 1001.3 |
| 20260506124605 | 74 | 259 | 0.0 | 0.0 | 0.00 | 0.00 | 0.00 | 88 | 1001.3 |
| 20260506124503 | 74 | 259 | 0.0 | 0.0 | 0.00 | 0.00 | 0.00 | 88 | 1001.3 |
| 20260506124404 | 74 | 259 | 0.0 | 0.0 | 0.00 | 0.00 | 0.00 | 88 | 1001.3 |
| 20260506124303 | 74 | 259 | 0.0 | 0.0 | 0.00 | 0.00 | 0.00 | 88 | 1001.3 |
| 20260506124204 | 74 | 259 | 0.0 | 0.0 | 0.00 | 0.00 | 0.00 | 88 | 1001.3 |
| 20260506124102 | 74 | 259 | 0.0 | 0.0 | 0.00 | 0.00 | 0.00 | 88 | 1001.3 |
| 20260506124003 | 74 | 259 | 0.0 | 0.0 | 0.00 | 0.00 | 0.00 | 88 | 1001.3 |
| 20260506123905 | 74 | 259 | 0.0 | 0.0 | 0.00 | 0.00 | 0.00 | 88 | 1001.3 |
| 20260506123805 | 74 | 259 | 0.0 | 0.0 | 0.00 | 0.00 | 0.00 | 88 | 1001.3 |
| 20260506123705 | 74 | 259 | 0.0 | 0.0 | 0.00 | 0.00 | 0.00 | 88 | 1001.3 |
| 20260506123603 | 74 | 259 | 0.0 | 0.0 | 0.00 | 0.00 | 0.00 | 88 | 1001.4 |
| 20260506123505 | 74 | 259 | 0.0 | 0.0 | 0.00 | 0.00 | 0.00 | 88 | 1001.2 |
| 20260506123402 | 74 | 259 | 0.0 | 0.0 | 0.00 | 0.00 | 0.00 | 88 | 1001.3 |
| 20260506123304 | 74 | 259 | 0.0 | 0.0 | 0.00 | 0.00 | 0.00 | 88 | 1001.3 |
| 20260506123203 | 74 | 259 | 0.0 | 0.0 | 0.00 | 0.00 | 0.00 | 88 | 1001.3 |
| 20260506123104 | 74 | 259 | 0.0 | 0.0 | 0.00 | 0.00 | 0.00 | 88 | 1001.2 |
| 20260506123004 | 74 | 259 | 0.0 | 0.0 | 0.00 | 0.00 | 0.00 | 88 | 1001.2 |
| 20260506122903 | 74 | 259 | 0.0 | 0.0 | 0.00 | 0.00 | 0.00 | 88 | 1001.2 |
| 20260506122804 | 74 | 259 | 0.0 | 0.0 | 0.00 | 0.00 | 0.00 | 88 | 1001.2 |
| 20260506122703 | 74 | 259 | 0.0 | 0.0 | 0.00 | 0.00 | 0.00 | 88 | 1001.2 |
| 20260506122602 | 74 | 259 | 0.0 | 0.0 | 0.00 | 0.00 | 0.00 | 88 | 1001.2 |
| 20260506122503 | 74 | 259 | 0.0 | 0.0 | 0.00 | 0.00 | 0.00 | 88 | 1001.2 |
| 20260506122403 | 74 | 259 | 0.0 | 0.0 | 0.00 | 0.00 | 0.00 | 88 | 1001.1 |
| 20260506122305 | 74 | 259 | 0.0 | 0.0 | 0.00 | 0.00 | 0.00 | 88 | 1001.1 |
| 20260506122204 | 74 | 259 | 0.0 | 0.0 | 0.00 | 0.00 | 0.00 | 88 | 1001.0 |
| 20260506122104 | 74 | 259 | 0.0 | 0.0 | 0.00 | 0.00 | 0.00 | 88 | 1001.1 |
| 20260506122002 | 74 | 259 | 0.0 | 0.0 | 0.00 | 0.00 | 0.00 | 88 | 1001.1 |
| 20260506121903 | 74 | 259 | 0.0 | 0.0 | 0.00 | 0.00 | 0.00 | 88 | 1001.1 |
| 20260506121802 | 74 | 259 | 0.0 | 0.0 | 0.00 | 0.00 | 0.00 | 88 | 1001.1 |
| 20260506121703 | 74 | 259 | 0.0 | 0.0 | 0.00 | 0.00 | 0.00 | 88 | 1001.2 |
| 20260506121602 | 74 | 259 | 0.0 | 0.0 | 0.00 | 0.00 | 0.00 | 88 | 1001.1 |
| 20260506121502 | 74 | 259 | 0.0 | 0.0 | 0.00 | 0.00 | 0.00 | 88 | 1001.1 |
| 20260506121403 | 74 | 259 | 0.0 | 0.0 | 0.00 | 0.00 | 0.00 | 88 | 1001.1 |
| 20260506121304 | 74 | 259 | 0.0 | 0.0 | 0.00 | 0.00 | 0.00 | 88 | 1001.2 |
| 20260506121202 | 74 | 259 | 0.0 | 0.0 | 0.00 | 0.00 | 0.00 | 88 | 1001.2 |
| 20260506121102 | 74 | 259 | 0.0 | 0.0 | 0.00 | 0.00 | 0.00 | 88 | 1001.3 |
| 20260506121002 | 74 | 259 | 0.0 | 0.0 | 0.00 | 0.00 | 0.00 | 88 | 1001.2 |
| 20260506120903 | 74 | 259 | 0.0 | 0.0 | 0.00 | 0.00 | 0.00 | 88 | 1001.2 |
| 20260506120804 | 74 | 259 | 0.0 | 0.0 | 0.00 | 0.00 | 0.00 | 88 | 1001.2 |
| 20260506120702 | 74 | 259 | 0.0 | 0.0 | 0.00 | 0.00 | 0.00 | 88 | 1001.2 |
| 20260506120603 | 74 | 259 | 0.0 | 0.0 | 0.00 | 0.00 | 0.00 | 88 | 1001.2 |
| 20260506120504 | 74 | 259 | 0.0 | 0.0 | 0.00 | 0.00 | 0.00 | 88 | 1001.2 |
| 20260506120404 | 74 | 259 | 0.0 | 0.0 | 0.00 | 0.00 | 0.00 | 88 | 1001.2 |
| 20260506120303 | 74 | 259 | 0.0 | 0.0 | 0.00 | 0.00 | 0.00 | 88 | 1001.2 |
| 20260506120203 | 74 | 259 | 0.0 | 0.0 | 0.00 | 0.00 | 0.00 | 88 | 1001.2 |
| 20260506120104 | 74 | 259 | 0.0 | 0.0 | 0.00 | 0.00 | 0.00 | 88 | 1001.2 |
| 20260506120004 | 74 | 259 | 0.0 | 0.0 | 0.00 | 0.00 | 0.00 | 88 | 1001.0 |
| 20260506115904 | 74 | 259 | 0.0 | 0.0 | 0.00 | 0.00 | 0.00 | 88 | 1001.1 |
| 20260506115804 | 74 | 259 | 0.0 | 0.0 | 0.00 | 0.00 | 0.00 | 88 | 1001.1 |
| 20260506115703 | 74 | 259 | 0.0 | 0.0 | 0.00 | 0.00 | 0.00 | 88 | 1001.0 |
| 20260506115605 | 74 | 259 | 0.0 | 0.0 | 0.00 | 0.00 | 0.00 | 88 | 1001.1 |
| 20260506115505 | 74 | 259 | 0.0 | 0.0 | 0.00 | 0.00 | 0.00 | 88 | 1001.1 |
| 20260506115404 | 74 | 259 | 0.0 | 0.0 | 0.00 | 0.00 | 0.00 | 88 | 1001.0 |
| 20260506115307 | 74 | 259 | 0.0 | 0.0 | 0.00 | 0.00 | 0.00 | 88 | 1001.0 |
| 20260506115202 | 74 | 259 | 0.0 | 0.0 | 0.00 | 0.00 | 0.00 | 88 | 1001.0 |
| 20260506115105 | 74 | 259 | 0.0 | 0.0 | 0.00 | 0.00 | 0.00 | 88 | 1001.0 |
| 20260506115003 | 74 | 259 | 0.0 | 0.0 | 0.00 | 0.00 | 0.00 | 88 | 1001.0 |
| 20260506114903 | 74 | 259 | 0.0 | 0.0 | 0.00 | 0.00 | 0.00 | 88 | 1001.0 |
| 20260506114804 | 74 | 259 | 0.0 | 0.0 | 0.00 | 0.00 | 0.00 | 88 | 1001.0 |
| 20260506114702 | 74 | 259 | 0.0 | 0.0 | 0.00 | 0.00 | 0.00 | 88 | 1001.0 |
| 20260506114605 | 74 | 259 | 0.0 | 0.0 | 0.00 | 0.00 | 0.00 | 88 | 1001.0 |
| 20260506114505 | 74 | 259 | 0.0 | 0.0 | 0.00 | 0.00 | 0.00 | 88 | 1000.9 |
| 20260506114402 | 74 | 259 | 0.0 | 0.0 | 0.00 | 0.00 | 0.00 | 88 | 1000.8 |
| 20260506114305 | 74 | 259 | 0.0 | 0.0 | 0.00 | 0.00 | 0.00 | 88 | 1000.8 |
| 20260506114204 | 74 | 259 | 0.0 | 0.0 | 0.00 | 0.00 | 0.00 | 88 | 1000.9 |
| 20260506114103 | 74 | 259 | 0.0 | 0.0 | 0.00 | 0.00 | 0.00 | 88 | 1000.8 |
| 20260506114003 | 74 | 259 | 0.0 | 0.0 | 0.00 | 0.00 | 0.00 | 88 | 1000.8 |
| 20260506113902 | 74 | 259 | 0.0 | 0.0 | 0.00 | 0.00 | 0.00 | 88 | 1000.8 |
| 20260506113802 | 74 | 259 | 0.0 | 0.0 | 0.00 | 0.00 | 0.00 | 88 | 1000.8 |
| 20260506113702 | 74 | 259 | 0.0 | 0.0 | 0.00 | 0.00 | 0.00 | 88 | 1000.7 |
| 20260506113605 | 74 | 259 | 0.0 | 0.0 | 0.00 | 0.00 | 0.00 | 88 | 1000.7 |
| 20260506113504 | 74 | 259 | 0.0 | 0.0 | 0.00 | 0.00 | 0.00 | 88 | 1000.7 |
| 20260506113402 | 74 | 259 | 0.0 | 0.0 | 0.00 | 0.00 | 0.00 | 88 | 1000.7 |
| 20260506113305 | 74 | 259 | 0.0 | 0.0 | 0.00 | 0.00 | 0.00 | 88 | 1000.8 |
| 20260506113202 | 74 | 259 | 0.0 | 0.0 | 0.00 | 0.00 | 0.00 | 88 | 1000.8 |
| 20260506113105 | 74 | 259 | 0.0 | 0.0 | 0.00 | 0.00 | 0.00 | 88 | 1000.9 |
| 20260506113004 | 74 | 259 | 0.0 | 0.0 | 0.00 | 0.00 | 0.00 | 88 | 1000.8 |
| 20260506112902 | 74 | 259 | 0.0 | 0.0 | 0.00 | 0.00 | 0.00 | 88 | 1000.8 |
| 20260506112802 | 74 | 259 | 0.0 | 0.0 | 0.00 | 0.00 | 0.00 | 88 | 1000.9 |
| 20260506112706 | 74 | 259 | 0.0 | 0.0 | 0.00 | 0.00 | 0.00 | 88 | 1000.9 |
| 20260506112603 | 74 | 259 | 0.0 | 0.0 | 0.00 | 0.00 | 0.00 | 88 | 1000.9 |
| 20260506112505 | 74 | 259 | 0.0 | 0.0 | 0.00 | 0.00 | 0.00 | 88 | 1000.9 |
| 20260506112403 | 74 | 259 | 0.0 | 0.0 | 0.00 | 0.00 | 0.00 | 88 | 1000.9 |
| 20260506112305 | 74 | 259 | 0.0 | 0.0 | 0.00 | 0.00 | 0.00 | 88 | 1000.9 |
| 20260506112202 | 74 | 259 | 0.0 | 1.0 | 0.00 | 0.00 | 0.00 | 88 | 1000.9 |
| 20260506112103 | 74 | 259 | 0.0 | 1.0 | 0.00 | 0.00 | 0.00 | 88 | 1000.9 |
| 20260506112002 | 74 | 259 | 0.0 | 1.0 | 0.00 | 0.00 | 0.00 | 88 | 1000.9 |
| 20260506111903 | 74 | 259 | 0.0 | 1.0 | 0.00 | 0.00 | 0.00 | 88 | 1000.7 |
| 20260506111802 | 74 | 259 | 0.0 | 1.0 | 0.00 | 0.00 | 0.00 | 88 | 1000.8 |
| 20260506111705 | 74 | 259 | 0.0 | 1.0 | 0.00 | 0.00 | 0.00 | 88 | 1000.8 |
| 20260506111602 | 74 | 259 | 0.0 | 1.0 | 0.00 | 0.00 | 0.00 | 88 | 1000.7 |
| 20260506111502 | 74 | 259 | 0.0 | 1.0 | 0.00 | 0.00 | 0.00 | 88 | 1000.7 |
| 20260506111403 | 74 | 259 | 0.0 | 1.0 | 0.00 | 0.00 | 0.00 | 88 | 1000.8 |
| 20260506111305 | 74 | 259 | 0.0 | 1.0 | 0.00 | 0.00 | 0.00 | 88 | 1000.8 |
| 20260506111204 | 74 | 259 | 0.0 | 0.0 | 0.00 | 0.00 | 0.00 | 88 | 1000.8 |
| 20260506111104 | 74 | 259 | 0.0 | 0.0 | 0.00 | 0.00 | 0.00 | 88 | 1000.8 |
| 20260506111002 | 74 | 259 | 0.0 | 0.0 | 0.00 | 0.00 | 0.00 | 88 | 1000.8 |
| 20260506110902 | 74 | 259 | 0.0 | 0.0 | 0.00 | 0.00 | 0.00 | 88 | 1000.8 |
| 20260506110804 | 74 | 259 | 0.0 | 0.0 | 0.00 | 0.00 | 0.00 | 88 | 1000.8 |
| 20260506110702 | 74 | 259 | 0.0 | 0.0 | 0.00 | 0.00 | 0.00 | 88 | 1000.8 |
| 20260506110603 | 74 | 259 | 0.0 | 0.0 | 0.00 | 0.00 | 0.00 | 88 | 1000.7 |
| 20260506110502 | 74 | 259 | 0.0 | 0.0 | 0.00 | 0.00 | 0.00 | 88 | 1000.7 |
| 20260506110404 | 74 | 259 | 0.0 | 0.0 | 0.00 | 0.00 | 0.00 | 87 | 1000.6 |
| 20260506110303 | 74 | 259 | 0.0 | 0.0 | 0.00 | 0.00 | 0.00 | 88 | 1000.6 |
| 20260506110204 | 74 | 259 | 0.0 | 0.0 | 0.00 | 0.00 | 0.00 | 88 | 1000.6 |
| 20260506110002 | 74 | 259 | 0.0 | 0.0 | 0.00 | 0.00 | 0.00 | 87 | 1000.6 |
| 20260506105902 | 74 | 259 | 0.0 | 0.0 | 0.00 | 0.00 | 0.00 | 87 | 1000.6 |
| 20260506105804 | 74 | 259 | 0.0 | 0.0 | 0.00 | 0.00 | 0.00 | 87 | 1000.6 |
| 20260506105704 | 74 | 259 | 0.0 | 0.0 | 0.00 | 0.00 | 0.00 | 87 | 1000.5 |
| 20260506105602 | 74 | 259 | 0.0 | 0.0 | 0.00 | 0.00 | 0.00 | 87 | 1000.5 |
| 20260506105502 | 74 | 259 | 0.0 | 0.0 | 0.00 | 0.00 | 0.00 | 87 | 1000.5 |
| 20260506105403 | 74 | 259 | 0.0 | 0.0 | 0.00 | 0.00 | 0.00 | 87 | 1000.5 |
| 20260506105305 | 74 | 259 | 0.0 | 0.0 | 0.00 | 0.00 | 0.00 | 87 | 1000.4 |
| 20260506105203 | 74 | 259 | 0.0 | 0.0 | 0.00 | 0.00 | 0.00 | 87 | 1000.4 |
| 20260506105103 | 74 | 259 | 0.0 | 0.0 | 0.00 | 0.00 | 0.00 | 87 | 1000.3 |
| 20260506105003 | 74 | 259 | 0.0 | 0.0 | 0.00 | 0.00 | 0.00 | 87 | 1000.3 |
| 20260506104904 | 74 | 259 | 0.0 | 0.0 | 0.00 | 0.00 | 0.00 | 87 | 1000.3 |
| 20260506104802 | 74 | 259 | 0.0 | 0.0 | 0.00 | 0.00 | 0.00 | 87 | 1000.2 |
| 20260506104701 | 74 | 259 | 0.0 | 1.0 | 0.00 | 0.00 | 0.00 | 87 | 1000.3 |
| 20260506104603 | 74 | 259 | 0.0 | 1.0 | 0.00 | 0.00 | 0.00 | 87 | 1000.2 |
| 20260506104503 | 74 | 259 | 0.0 | 1.0 | 0.00 | 0.00 | 0.00 | 87 | 1000.2 |
| 20260506104402 | 74 | 259 | 0.0 | 1.0 | 0.00 | 0.00 | 0.00 | 87 | 1000.2 |
| 20260506104302 | 74 | 259 | 0.0 | 1.0 | 0.00 | 0.00 | 0.00 | 87 | 1000.2 |
| 20260506104203 | 74 | 259 | 0.0 | 1.0 | 0.00 | 0.00 | 0.00 | 87 | 1000.1 |
| 20260506104103 | 74 | 259 | 0.0 | 1.0 | 0.00 | 0.00 | 0.00 | 87 | 1000.1 |
| 20260506104003 | 75 | 259 | 0.0 | 1.0 | 0.00 | 0.00 | 0.00 | 87 | 1000.1 |
| 20260506103902 | 75 | 259 | 0.0 | 1.0 | 0.00 | 0.00 | 0.00 | 87 | 1000.1 |
| 20260506103803 | 75 | 259 | 0.0 | 1.0 | 0.00 | 0.00 | 0.00 | 87 | 1000.0 |
| 20260506103702 | 75 | 259 | 0.0 | 1.0 | 0.00 | 0.00 | 0.00 | 87 | 1000.0 |
| 20260506103603 | 75 | 259 | 0.0 | 0.0 | 0.00 | 0.00 | 0.00 | 87 | 1000.0 |
| 20260506103503 | 75 | 259 | 0.0 | 0.0 | 0.00 | 0.00 | 0.00 | 87 | 1000.0 |
| 20260506103403 | 75 | 259 | 0.0 | 0.0 | 0.00 | 0.00 | 0.00 | 87 | 1000.0 |
| 20260506103303 | 75 | 259 | 0.0 | 1.0 | 0.00 | 0.00 | 0.00 | 87 | 999.9 |
| 20260506103204 | 75 | 259 | 0.0 | 1.0 | 0.00 | 0.00 | 0.00 | 87 | 999.8 |
| 20260506103103 | 75 | 259 | 0.0 | 1.0 | 0.00 | 0.00 | 0.00 | 87 | 999.8 |
| 20260506103002 | 75 | 259 | 0.0 | 1.0 | 0.00 | 0.00 | 0.00 | 87 | 999.8 |
| 20260506102902 | 75 | 259 | 0.0 | 1.0 | 0.00 | 0.00 | 0.00 | 87 | 999.9 |
| 20260506102802 | 75 | 259 | 0.0 | 1.0 | 0.00 | 0.00 | 0.00 | 87 | 999.8 |
| 20260506102704 | 75 | 259 | 0.0 | 1.0 | 0.00 | 0.00 | 0.00 | 87 | 999.8 |
| 20260506102603 | 75 | 259 | 0.0 | 1.0 | 0.00 | 0.00 | 0.00 | 87 | 999.8 |
| 20260506102501 | 75 | 259 | 0.0 | 1.0 | 0.00 | 0.00 | 0.00 | 87 | 999.8 |
| 20260506102402 | 75 | 259 | 1.0 | 1.0 | 0.00 | 0.00 | 0.00 | 87 | 999.9 |
| 20260506102305 | 75 | 259 | 0.0 | 1.0 | 0.00 | 0.00 | 0.00 | 87 | 999.9 |
| 20260506102203 | 75 | 250 | 0.0 | 1.0 | 0.00 | 0.00 | 0.00 | 87 | 999.8 |
| 20260506102102 | 75 | 250 | 0.0 | 1.0 | 0.00 | 0.00 | 0.00 | 87 | 999.9 |
| 20260506102004 | 75 | 250 | 0.0 | 3.0 | 0.00 | 0.00 | 0.00 | 87 | 999.8 |
| 20260506101904 | 75 | 248 | 0.0 | 3.0 | 0.00 | 0.00 | 0.00 | 87 | 999.9 |
| 20260506101802 | 75 | 248 | 0.0 | 3.0 | 0.00 | 0.00 | 0.00 | 87 | 999.9 |
| 20260506101702 | 75 | 248 | 0.0 | 3.0 | 0.00 | 0.00 | 0.00 | 87 | 999.9 |
| 20260506101604 | 75 | 248 | 0.0 | 3.0 | 0.00 | 0.00 | 0.00 | 87 | 999.9 |
| 20260506101503 | 75 | 248 | 0.0 | 3.0 | 0.00 | 0.00 | 0.00 | 87 | 999.9 |
| 20260506101401 | 75 | 248 | 0.0 | 3.0 | 0.00 | 0.00 | 0.00 | 87 | 999.9 |
| 20260506101302 | 75 | 248 | 0.0 | 3.0 | 0.00 | 0.00 | 0.00 | 87 | 999.9 |
| 20260506101203 | 75 | 214 | 1.0 | 3.0 | 0.00 | 0.00 | 0.00 | 87 | 999.9 |
| 20260506101102 | 75 | 214 | 1.0 | 3.0 | 0.00 | 0.00 | 0.00 | 87 | 999.9 |
| 20260506101003 | 75 | 1 | 1.0 | 3.0 | 0.00 | 0.00 | 0.00 | 87 | 999.9 |
| 20260506100903 | 75 | 202 | 0.0 | 2.0 | 0.00 | 0.00 | 0.00 | 87 | 999.9 |
| 20260506100803 | 75 | 202 | 0.0 | 2.0 | 0.00 | 0.00 | 0.00 | 87 | 999.9 |
| 20260506100702 | 75 | 202 | 1.0 | 2.0 | 0.00 | 0.00 | 0.00 | 87 | 999.9 |
| 20260506100602 | 75 | 207 | 1.0 | 2.0 | 0.00 | 0.00 | 0.00 | 87 | 999.8 |
| 20260506100450 | 75 | 207 | 0.0 | 2.0 | 0.00 | 0.00 | 0.00 | 87 | 999.8 |
| 20260506100344 | 75 | 343 | 0.0 | 2.0 | 0.00 | 0.00 | 0.00 | 87 | 999.9 |
| 20260506100245 | 75 | 343 | 1.0 | 2.0 | 0.00 | 0.00 | 0.00 | 87 | 999.8 |
| 20260506100140 | 75 | 344 | 0.0 | 2.0 | 0.00 | 0.00 | 0.00 | 87 | 999.9 |
| 20260506100035 | 75 | 254 | 0.0 | 1.0 | 0.00 | 0.00 | 0.00 | 87 | 999.9 |
| 20260506095934 | 75 | 254 | 0.0 | 1.0 | 0.00 | 0.00 | 0.00 | 87 | 999.9 |
| 20260506095835 | 75 | 254 | 0.0 | 1.0 | 0.00 | 0.00 | 0.00 | 87 | 999.9 |
| 20260506095735 | 75 | 254 | 0.0 | 1.0 | 0.00 | 0.00 | 0.00 | 87 | 999.9 |
| 20260506095635 | 75 | 254 | 0.0 | 1.0 | 0.00 | 0.00 | 0.00 | 87 | 999.9 |
| 20260506095534 | 75 | 254 | 0.0 | 1.0 | 0.00 | 0.00 | 0.00 | 87 | 999.9 |
| 20260506095435 | 75 | 254 | 0.0 | 2.0 | 0.00 | 0.00 | 0.00 | 87 | 999.9 |
| 20260506095334 | 75 | 254 | 0.0 | 2.0 | 0.00 | 0.00 | 0.00 | 87 | 999.8 |
| 20260506095235 | 75 | 254 | 0.0 | 2.0 | 0.00 | 0.00 | 0.00 | 87 | 999.9 |
| 20260506095135 | 75 | 254 | 0.0 | 2.0 | 0.00 | 0.00 | 0.00 | 87 | 999.8 |
| 20260506095034 | 75 | 254 | 0.0 | 2.0 | 0.00 | 0.00 | 0.00 | 87 | 999.8 |
| 20260506094934 | 75 | 254 | 0.0 | 2.0 | 0.00 | 0.00 | 0.00 | 87 | 999.8 |
| 20260506094836 | 75 | 254 | 0.0 | 2.0 | 0.00 | 0.00 | 0.00 | 87 | 999.8 |
| 20260506094734 | 75 | 254 | 0.0 | 2.0 | 0.00 | 0.00 | 0.00 | 87 | 999.7 |
| 20260506094634 | 75 | 254 | 0.0 | 2.0 | 0.00 | 0.00 | 0.00 | 87 | 999.7 |
| 20260506094534 | 75 | 254 | 0.0 | 2.0 | 0.00 | 0.00 | 0.00 | 87 | 999.7 |
| 20260506094436 | 75 | 228 | 0.0 | 2.0 | 0.00 | 0.00 | 0.00 | 87 | 999.7 |
| 20260506094335 | 75 | 226 | 0.0 | 2.0 | 0.00 | 0.00 | 0.00 | 87 | 999.6 |
| 20260506094233 | 75 | 226 | 0.0 | 2.0 | 0.00 | 0.00 | 0.00 | 87 | 999.6 |
| 20260506094134 | 75 | 193 | 0.0 | 1.0 | 0.00 | 0.00 | 0.00 | 87 | 999.6 |
| 20260506094035 | 75 | 193 | 0.0 | 1.0 | 0.00 | 0.00 | 0.00 | 87 | 999.7 |
| 20260506093933 | 75 | 193 | 0.0 | 1.0 | 0.00 | 0.00 | 0.00 | 87 | 999.6 |
| 20260506093835 | 75 | 193 | 0.0 | 1.0 | 0.00 | 0.00 | 0.00 | 87 | 999.6 |
| 20260506093733 | 75 | 193 | 0.0 | 1.0 | 0.00 | 0.00 | 0.00 | 87 | 999.5 |
| 20260506093632 | 75 | 193 | 0.0 | 1.0 | 0.00 | 0.00 | 0.00 | 87 | 999.5 |
| 20260506093532 | 75 | 193 | 0.0 | 1.0 | 0.00 | 0.00 | 0.00 | 87 | 999.5 |
| 20260506093432 | 75 | 193 | 0.0 | 1.0 | 0.00 | 0.00 | 0.00 | 87 | 999.5 |
| 20260506093332 | 75 | 193 | 0.0 | 1.0 | 0.00 | 0.00 | 0.00 | 87 | 999.5 |
| 20260506093231 | 75 | 193 | 0.0 | 1.0 | 0.00 | 0.00 | 0.00 | 87 | 999.5 |
| 20260506093133 | 75 | 193 | 0.0 | 1.0 | 0.00 | 0.00 | 0.00 | 87 | 999.6 |
| 20260506093033 | 75 | 193 | 0.0 | 1.0 | 0.00 | 0.00 | 0.00 | 87 | 999.5 |
| 20260506092931 | 75 | 193 | 0.0 | 1.0 | 0.00 | 0.00 | 0.00 | 87 | 999.5 |
| 20260506092832 | 75 | 193 | 0.0 | 1.0 | 0.00 | 0.00 | 0.00 | 87 | 999.6 |
| 20260506092732 | 75 | 193 | 0.0 | 1.0 | 0.00 | 0.00 | 0.00 | 87 | 999.5 |
| 20260506092632 | 75 | 193 | 0.0 | 1.0 | 0.00 | 0.00 | 0.00 | 87 | 999.5 |
| 20260506092533 | 75 | 193 | 0.0 | 1.0 | 0.00 | 0.00 | 0.00 | 87 | 999.5 |
| 20260506092431 | 75 | 193 | 0.0 | 1.0 | 0.00 | 0.00 | 0.00 | 87 | 999.6 |
| 20260506092331 | 75 | 193 | 0.0 | 1.0 | 0.00 | 0.00 | 0.00 | 87 | 999.6 |
| 20260506092233 | 75 | 193 | 0.0 | 1.0 | 0.00 | 0.00 | 0.00 | 87 | 999.5 |
| 20260506092131 | 75 | 193 | 0.0 | 1.0 | 0.00 | 0.00 | 0.00 | 87 | 999.6 |
| 20260506092033 | 75 | 193 | 0.0 | 1.0 | 0.00 | 0.00 | 0.00 | 87 | 999.5 |
| 20260506091931 | 75 | 193 | 0.0 | 1.0 | 0.00 | 0.00 | 0.00 | 87 | 999.6 |
| 20260506091832 | 75 | 193 | 0.0 | 1.0 | 0.00 | 0.00 | 0.00 | 87 | 999.6 |
| 20260506091732 | 75 | 193 | 0.0 | 1.0 | 0.00 | 0.00 | 0.00 | 87 | 999.6 |
| 20260506091631 | 75 | 193 | 0.0 | 1.0 | 0.00 | 0.00 | 0.00 | 87 | 999.5 |
| 20260506091531 | 75 | 193 | 0.0 | 1.0 | 0.00 | 0.00 | 0.00 | 87 | 999.5 |
| 20260506091432 | 75 | 193 | 0.0 | 1.0 | 0.00 | 0.00 | 0.00 | 87 | 999.5 |
| 20260506091331 | 75 | 193 | 0.0 | 2.0 | 0.00 | 0.00 | 0.00 | 87 | 999.5 |
| 20260506091233 | 75 | 193 | 0.0 | 2.0 | 0.00 | 0.00 | 0.00 | 87 | 999.5 |
| 20260506091133 | 75 | 193 | 0.0 | 2.0 | 0.00 | 0.00 | 0.00 | 87 | 999.6 |
| 20260506091031 | 75 | 193 | 0.0 | 2.0 | 0.00 | 0.00 | 0.00 | 87 | 999.6 |
| 20260506090931 | 75 | 193 | 0.0 | 2.0 | 0.00 | 0.00 | 0.00 | 87 | 999.6 |
| 20260506090831 | 75 | 165 | 0.0 | 2.0 | 0.00 | 0.00 | 0.00 | 87 | 999.6 |
| 20260506090732 | 75 | 165 | 0.0 | 2.0 | 0.00 | 0.00 | 0.00 | 87 | 999.6 |
| 20260506090631 | 75 | 165 | 0.0 | 2.0 | 0.00 | 0.00 | 0.00 | 87 | 999.6 |
| 20260506090531 | 75 | 165 | 0.0 | 2.0 | 0.00 | 0.00 | 0.00 | 87 | 999.6 |
| 20260506090431 | 75 | 165 | 0.0 | 2.0 | 0.00 | 0.00 | 0.00 | 87 | 999.7 |
| 20260506090333 | 75 | 165 | 0.0 | 2.0 | 0.00 | 0.00 | 0.00 | 87 | 999.5 |
| 20260506090232 | 75 | 165 | 0.0 | 2.0 | 0.00 | 0.00 | 0.00 | 87 | 999.5 |
| 20260506090134 | 75 | 165 | 0.0 | 2.0 | 0.00 | 0.00 | 0.00 | 86 | 999.5 |
| 20260506090033 | 75 | 165 | 0.0 | 2.0 | 0.00 | 0.00 | 0.00 | 86 | 999.5 |
| 20260506085932 | 75 | 165 | 0.0 | 2.0 | 0.00 | 0.00 | 0.00 | 86 | 999.6 |
| 20260506085832 | 75 | 165 | 0.0 | 2.0 | 0.00 | 0.00 | 0.00 | 86 | 999.6 |
| 20260506085733 | 75 | 165 | 0.0 | 2.0 | 0.00 | 0.00 | 0.00 | 86 | 999.5 |
| 20260506085631 | 75 | 165 | 0.0 | 2.0 | 0.00 | 0.00 | 0.00 | 86 | 999.5 |
| 20260506085531 | 75 | 165 | 1.0 | 2.0 | 0.00 | 0.00 | 0.00 | 86 | 999.5 |
| 20260506085433 | 75 | 157 | 0.0 | 2.0 | 0.00 | 0.00 | 0.00 | 86 | 999.5 |
| 20260506085331 | 75 | 290 | 0.0 | 2.0 | 0.00 | 0.00 | 0.00 | 86 | 999.5 |
| 20260506085231 | 75 | 290 | 0.0 | 2.0 | 0.00 | 0.00 | 0.00 | 86 | 999.4 |
| 20260506085131 | 75 | 290 | 0.0 | 2.0 | 0.00 | 0.00 | 0.00 | 86 | 999.4 |
| 20260506085032 | 75 | 290 | 0.0 | 2.0 | 0.00 | 0.00 | 0.00 | 86 | 999.4 |
| 20260506084931 | 75 | 290 | 1.0 | 2.0 | 0.00 | 0.00 | 0.00 | 86 | 999.4 |
| 20260506084833 | 75 | 290 | 1.0 | 2.0 | 0.00 | 0.00 | 0.00 | 86 | 999.5 |
| 20260506084731 | 75 | 290 | 1.0 | 2.0 | 0.00 | 0.00 | 0.00 | 86 | 999.4 |
| 20260506084631 | 75 | 248 | 1.0 | 2.0 | 0.00 | 0.00 | 0.00 | 86 | 999.4 |
| 20260506084531 | 75 | 248 | 0.0 | 2.0 | 0.00 | 0.00 | 0.00 | 86 | 999.4 |
| 20260506084432 | 75 | 252 | 0.0 | 2.0 | 0.00 | 0.00 | 0.00 | 86 | 999.4 |
| 20260506084321 | 75 | 252 | 0.0 | 2.0 | 0.00 | 0.00 | 0.00 | 86 | 999.4 |
| 20260506084213 | 75 | 85 | 0.0 | 2.0 | 0.00 | 0.00 | 0.00 | 86 | 999.4 |
| 20260506084109 | 75 | 89 | 0.0 | 2.0 | 0.00 | 0.00 | 0.00 | 86 | 999.4 |
| 20260506084011 | 75 | 89 | 0.0 | 2.0 | 0.00 | 0.00 | 0.00 | 86 | 999.4 |
| 20260506083906 | 75 | 317 | 0.0 | 2.0 | 0.00 | 0.00 | 0.00 | 86 | 999.4 |
| 20260506083804 | 75 | 317 | 0.0 | 2.0 | 0.00 | 0.00 | 0.00 | 86 | 999.4 |
| 20260506083701 | 75 | 241 | 0.0 | 0.0 | 0.00 | 0.00 | 0.00 | 86 | 999.4 |
| 20260506083601 | 75 | 241 | 0.0 | 1.0 | 0.00 | 0.00 | 0.00 | 86 | 999.3 |
| 20260506083502 | 75 | 241 | 0.0 | 1.0 | 0.00 | 0.00 | 0.00 | 86 | 999.4 |
| 20260506083402 | 75 | 241 | 0.0 | 1.0 | 0.00 | 0.00 | 0.00 | 86 | 999.5 |
| 20260506083304 | 75 | 241 | 0.0 | 1.0 | 0.00 | 0.00 | 0.00 | 86 | 999.5 |
| 20260506083202 | 76 | 241 | 0.0 | 1.0 | 0.00 | 0.00 | 0.00 | 86 | 999.5 |
| 20260506083102 | 76 | 241 | 0.0 | 1.0 | 0.00 | 0.00 | 0.00 | 86 | 999.7 |
| 20260506083002 | 76 | 241 | 0.0 | 1.0 | 0.00 | 0.00 | 0.00 | 86 | 999.6 |
| 20260506082903 | 76 | 241 | 0.0 | 1.0 | 0.00 | 0.00 | 0.00 | 86 | 999.7 |
| 20260506082804 | 76 | 241 | 0.0 | 1.0 | 0.00 | 0.00 | 0.00 | 86 | 999.7 |
| 20260506082704 | 76 | 241 | 0.0 | 1.0 | 0.00 | 0.00 | 0.00 | 86 | 999.7 |
| 20260506082604 | 76 | 241 | 0.0 | 1.0 | 0.00 | 0.00 | 0.00 | 86 | 999.7 |
| 20260506082502 | 76 | 241 | 0.0 | 1.0 | 0.00 | 0.00 | 0.00 | 86 | 999.7 |
| 20260506082403 | 76 | 241 | 0.0 | 1.0 | 0.00 | 0.00 | 0.00 | 86 | 999.7 |
| 20260506082305 | 76 | 241 | 0.0 | 1.0 | 0.00 | 0.00 | 0.00 | 86 | 999.6 |
| 20260506082202 | 76 | 241 | 0.0 | 1.0 | 0.00 | 0.00 | 0.00 | 86 | 999.7 |
| 20260506082102 | 76 | 241 | 0.0 | 1.0 | 0.00 | 0.00 | 0.00 | 86 | 999.7 |
| 20260506082003 | 76 | 241 | 0.0 | 1.0 | 0.00 | 0.00 | 0.00 | 86 | 999.7 |
| 20260506081902 | 76 | 241 | 0.0 | 1.0 | 0.00 | 0.00 | 0.00 | 86 | 999.8 |
| 20260506081802 | 76 | 241 | 0.0 | 1.0 | 0.00 | 0.00 | 0.00 | 86 | 999.6 |
| 20260506081702 | 76 | 241 | 0.0 | 1.0 | 0.00 | 0.00 | 0.00 | 86 | 999.7 |
| 20260506081603 | 76 | 241 | 0.0 | 2.0 | 0.00 | 0.00 | 0.00 | 86 | 999.7 |
| 20260506081503 | 76 | 241 | 0.0 | 2.0 | 0.00 | 0.00 | 0.00 | 86 | 999.7 |
| 20260506081401 | 76 | 241 | 0.0 | 2.0 | 0.00 | 0.00 | 0.00 | 86 | 999.8 |
| 20260506081302 | 76 | 241 | 0.0 | 2.0 | 0.00 | 0.00 | 0.00 | 86 | 999.7 |
| 20260506081202 | 76 | 241 | 0.0 | 2.0 | 0.00 | 0.00 | 0.00 | 86 | 999.7 |
| 20260506081102 | 76 | 241 | 0.0 | 2.0 | 0.00 | 0.00 | 0.00 | 86 | 999.7 |
| 20260506081002 | 76 | 241 | 0.0 | 2.0 | 0.00 | 0.00 | 0.00 | 86 | 999.7 |
| 20260506080904 | 76 | 241 | 0.0 | 2.0 | 0.00 | 0.00 | 0.00 | 86 | 999.7 |
| 20260506080802 | 76 | 230 | 0.0 | 2.0 | 0.00 | 0.00 | 0.00 | 86 | 999.7 |
| 20260506080702 | 76 | 230 | 1.0 | 2.0 | 0.00 | 0.00 | 0.00 | 86 | 999.7 |
| 20260506080603 | 76 | 230 | 0.0 | 1.0 | 0.00 | 0.00 | 0.00 | 86 | 999.7 |
| 20260506080503 | 76 | 227 | 0.0 | 1.0 | 0.00 | 0.00 | 0.00 | 86 | 999.7 |
| 20260506080402 | 76 | 227 | 0.0 | 1.0 | 0.00 | 0.00 | 0.00 | 86 | 999.7 |
| 20260506080303 | 76 | 250 | 0.0 | 1.0 | 0.00 | 0.00 | 0.00 | 86 | 999.7 |
| 20260506080202 | 76 | 250 | 0.0 | 1.0 | 0.00 | 0.00 | 0.00 | 86 | 999.8 |